Observation data for Fort McKavett on 03/24/2019      Previous  Date  Next       Current Mesonet Observations  Soil Data  Daily Summary Page  Observations in Plain Language
KMC1 240500Z 16008KT 17/15 A3005 RMK A01 T01720150  RH  087%=      5-min Rain = 0
KMC1 240501Z 17014KT 17/15 A3005 RMK A01 T01720151  RH  087%=      5-min Rain = 0
KMC1 240502Z 16011G16KT 17/15 A3005 RMK A01 T01730151  RH  087%=      5-min Rain = 0
KMC1 240503Z 17008KT 17/15 A3005 RMK A01 T01740151  RH  086%=      5-min Rain = 0
KMC1 240504Z 17010G17KT 17/15 A3006 RMK A01 T01740151  RH  086%=      5-min Rain = 0
KMC1 240505Z 17012KT 17/15 A3006 RMK A01 T01740152  RH  087%=      5-min Rain = 0
KMC1 240506Z 17009KT 17/15 A3006 RMK A01 T01740151  RH  087%=      5-min Rain = 0
KMC1 240507Z 16007KT 18/15 A3006 RMK A01 T01750152  RH  086%=      5-min Rain = 0
KMC1 240508Z 18006KT 18/15 A3006 RMK A01 T01750151  RH  086%=      5-min Rain = 0
KMC1 240509Z 17008KT 17/15 A3006 RMK A01 T01740152  RH  087%=      5-min Rain = 0
KMC1 240510Z 17006KT 17/15 A3006 RMK A01 T01740152  RH  087%=      5-min Rain = 0
KMC1 240511Z 18008G13KT 17/15 A3006 RMK A01 T01740152  RH  087%=      5-min Rain = 0
KMC1 240512Z 17010KT 17/15 A3006 RMK A01 T01740152  RH  087%=      5-min Rain = 0
KMC1 240513Z 17007KT 18/15 A3006 RMK A01 T01750152  RH  087%=      5-min Rain = 0
KMC1 240514Z 17006KT 18/15 A3006 RMK A01 T01750153  RH  086%=      5-min Rain = 0
KMC1 240515Z 17008KT 18/15 A3006 RMK A01 T01750152  RH  086%=      5-min Rain = 0
KMC1 240516Z 17010KT 18/15 A3006 RMK A01 T01750152  RH  086%=      5-min Rain = 0
KMC1 240517Z 18010KT 18/15 A3006 RMK A01 T01760153  RH  086%=      5-min Rain = 0
KMC1 240518Z 17010KT 18/15 A3006 RMK A01 T01760153  RH  086%=      5-min Rain = 0
KMC1 240519Z 18012KT 18/15 A3006 RMK A01 T01760152  RH  086%=      5-min Rain = 0
KMC1 240520Z 18010KT 18/15 A3006 RMK A01 T01760152  RH  086%=      5-min Rain = 0
KMC1 240521Z 18009KT 18/15 A3006 RMK A01 T01770152  RH  086%=      5-min Rain = 0
KMC1 240522Z 17007KT 18/15 A3006 RMK A01 T01770152  RH  086%=      5-min Rain = 0
KMC1 240523Z 18006KT 18/15 A3006 RMK A01 T01770152  RH  086%=      5-min Rain = 0
KMC1 240524Z 17006KT 18/15 A3006 RMK A01 T01770153  RH  086%=      5-min Rain = 0
KMC1 240525Z 18008KT 18/15 A3006 RMK A01 T01770153  RH  086%=      5-min Rain = 0
KMC1 240526Z 18006KT 18/15 A3006 RMK A01 T01770153  RH  086%=      5-min Rain = 0
KMC1 240527Z 19006KT 18/15 A3006 RMK A01 T01770153  RH  086%=      5-min Rain = 0
KMC1 240528Z 18009KT 18/15 A3006 RMK A01 T01770153  RH  086%=      5-min Rain = 0
KMC1 240529Z 18007KT 18/15 A3006 RMK A01 T01770153  RH  086%=      5-min Rain = 0
KMC1 240530Z 17009KT 18/15 A3006 RMK A01 T01770153  RH  086%=      5-min Rain = 0
KMC1 240531Z 17006KT 18/15 A3006 RMK A01 T01770153  RH  086%=      5-min Rain = 0
KMC1 240532Z 17008G15KT 18/15 A3006 RMK A01 T01770152  RH  085%=      5-min Rain = 0
KMC1 240533Z 18011KT 18/15 A3006 RMK A01 T01770152  RH  085%=      5-min Rain = 0
KMC1 240534Z 18010G16KT 18/15 A3006 RMK A01 T01780153  RH  085%=      5-min Rain = 0
KMC1 240535Z 17011KT 18/15 A3006 RMK A01 T01780153  RH  085%=      5-min Rain = 0
KMC1 240536Z 18011KT 18/15 A3006 RMK A01 T01780153  RH  085%=      5-min Rain = 0
KMC1 240537Z 19012KT 18/15 A3006 RMK A01 T01790153  RH  085%=      5-min Rain = 0
KMC1 240538Z 18009KT 18/15 A3006 RMK A01 T01790153  RH  085%=      5-min Rain = 0
KMC1 240539Z 17008KT 18/15 A3006 RMK A01 T01790153  RH  085%=      5-min Rain = 0
KMC1 240540Z 17008KT 18/15 A3006 RMK A01 T01790153  RH  085%=      5-min Rain = 0
KMC1 240541Z 18008G13KT 18/15 A3006 RMK A01 T01790153  RH  085%=      5-min Rain = 0
KMC1 240542Z 18013KT 18/15 A3006 RMK A01 T01790153  RH  085%=      5-min Rain = 0
KMC1 240543Z 19013KT 18/15 A3006 RMK A01 T01790153  RH  085%=      5-min Rain = 0
KMC1 240544Z 17012G20KT 18/15 A3006 RMK A01 T01790153  RH  084%=      5-min Rain = 0
KMC1 240545Z 17011KT 18/15 A3006 RMK A01 T01790153  RH  084%=      5-min Rain = 0
KMC1 240546Z 18008KT 18/15 A3006 RMK A01 T01800153  RH  084%=      5-min Rain = 0
KMC1 240547Z 17010KT 18/15 A3006 RMK A01 T01800153  RH  084%=      5-min Rain = 0
KMC1 240548Z 18013KT 18/15 A3006 RMK A01 T01800153  RH  084%=      5-min Rain = 0
KMC1 240549Z 19011G16KT 18/15 A3006 RMK A01 T01800153  RH  084%=      5-min Rain = 0
KMC1 240550Z 19007KT 18/15 A3006 RMK A01 T01800153  RH  084%=      5-min Rain = 0
KMC1 240551Z 17007KT 18/15 A3006 RMK A01 T01800153  RH  084%=      5-min Rain = 0
KMC1 240552Z 19009KT 18/15 A3006 RMK A01 T01800153  RH  085%=      5-min Rain = 0
KMC1 240553Z 18010KT 18/15 A3006 RMK A01 T01800154  RH  085%=      5-min Rain = 0
KMC1 240554Z 18008KT 18/15 A3006 RMK A01 T01790153  RH  085%=      5-min Rain = 0
KMC1 240555Z 18006KT 18/15 A3006 RMK A01 T01790153  RH  085%=      5-min Rain = 0
KMC1 240556Z 18008KT 18/15 A3006 RMK A01 T01790153  RH  085%=      5-min Rain = 0
KMC1 240557Z 19008KT 18/15 A3006 RMK A01 T01790153  RH  085%=      5-min Rain = 0
KMC1 240558Z 18006KT 18/15 A3006 RMK A01 T01790153  RH  085%=      5-min Rain = 0
KMC1 240559Z 20006KT 18/15 A3006 RMK A01 T01780153  RH  085%=      5-min Rain = 0
KMC1 240600Z 19008KT 18/15 A3006 RMK A01 T01780152  RH  085%=      5-min Rain = 0
KMC1 240601Z 18006KT 18/15 A3007 RMK A01 T01770153  RH  085%=      5-min Rain = 0
KMC1 240602Z 18011KT 18/15 A3007 RMK A01 T01770153  RH  086%=      5-min Rain = 0
KMC1 240603Z 17010KT 18/15 A3007 RMK A01 T01770153  RH  086%=      5-min Rain = 0
KMC1 240604Z 17006KT 18/15 A3007 RMK A01 T01770153  RH  086%=      5-min Rain = 0
KMC1 240605Z 18008KT 18/15 A3007 RMK A01 T01770153  RH  086%=      5-min Rain = 0
KMC1 240606Z 18008KT 18/15 A3007 RMK A01 T01770153  RH  086%=      5-min Rain = 0
KMC1 240607Z 19009KT 18/15 A3007 RMK A01 T01770153  RH  086%=      5-min Rain = 0
KMC1 240608Z 18008KT 18/15 A3007 RMK A01 T01770153  RH  085%=      5-min Rain = 0
KMC1 240609Z 18008KT 18/15 A3007 RMK A01 T01780153  RH  085%=      5-min Rain = 0
KMC1 240610Z 18006KT 18/15 A3007 RMK A01 T01780153  RH  085%=      5-min Rain = 0
KMC1 240611Z 18007KT 18/15 A3007 RMK A01 T01780153  RH  086%=      5-min Rain = 0
KMC1 240612Z 18007KT 18/15 A3007 RMK A01 T01780153  RH  086%=      5-min Rain = 0
KMC1 240613Z 18008KT 18/15 A3007 RMK A01 T01780153  RH  086%=      5-min Rain = 0
KMC1 240614Z 18010KT 18/15 A3007 RMK A01 T01780153  RH  086%=      5-min Rain = 0
KMC1 240615Z 19008KT 18/15 A3007 RMK A01 T01780154  RH  086%=      5-min Rain = 0
KMC1 240616Z 17005KT 18/15 A3007 RMK A01 T01780153  RH  086%=      5-min Rain = 0
KMC1 240617Z 18007KT 18/15 A3007 RMK A01 T01780154  RH  086%=      5-min Rain = 0
KMC1 240618Z 18007KT 18/15 A3007 RMK A01 T01780154  RH  086%=      5-min Rain = 0
KMC1 240619Z 18005KT 18/15 A3007 RMK A01 T01780154  RH  086%=      5-min Rain = 0
KMC1 240620Z 18008KT 18/15 A3007 RMK A01 T01780154  RH  086%=      5-min Rain = 0
KMC1 240621Z 19010KT 18/15 A3006 RMK A01 T01770153  RH  086%=      5-min Rain = 0
KMC1 240622Z 17007KT 18/15 A3006 RMK A01 T01770153  RH  086%=      5-min Rain = 0
KMC1 240623Z 18006G11KT 18/15 A3006 RMK A01 T01770154  RH  086%=      5-min Rain = 0
KMC1 240624Z 18007KT 18/15 A3006 RMK A01 T01770154  RH  086%=      5-min Rain = 0
KMC1 240625Z 18006KT 18/15 A3006 RMK A01 T01760153  RH  086%=      5-min Rain = 0
KMC1 240626Z 18007KT 18/15 A3006 RMK A01 T01760153  RH  086%=      5-min Rain = 0
KMC1 240627Z 18007KT 18/15 A3006 RMK A01 T01760153  RH  087%=      5-min Rain = 0
KMC1 240628Z 18007KT 18/15 A3006 RMK A01 T01750153  RH  087%=      5-min Rain = 0
KMC1 240629Z 18006KT 18/15 A3006 RMK A01 T01760153  RH  087%=      5-min Rain = 0
KMC1 240630Z 18007KT 18/15 A3006 RMK A01 T01750153  RH  087%=      5-min Rain = 0
KMC1 240631Z 18006KT 18/15 A3006 RMK A01 T01750153  RH  087%=      5-min Rain = 0
KMC1 240632Z 18006KT 18/15 A3006 RMK A01 T01750153  RH  087%=      5-min Rain = 0
KMC1 240633Z 17007KT 17/15 A3006 RMK A01 T01740153  RH  087%=      5-min Rain = 0
KMC1 240634Z 17006KT 17/15 A3006 RMK A01 T01740153  RH  088%=      5-min Rain = 0
KMC1 240635Z 18006KT 17/15 A3006 RMK A01 T01730153  RH  088%=      5-min Rain = 0
KMC1 240636Z 18008KT 17/15 A3006 RMK A01 T01730153  RH  088%=      5-min Rain = 0
KMC1 240637Z 18008KT 17/15 A3006 RMK A01 T01730153  RH  088%=      5-min Rain = 0
KMC1 240638Z 17005KT 17/15 A3006 RMK A01 T01730153  RH  088%=      5-min Rain = 0
KMC1 240639Z 17006KT 17/15 A3006 RMK A01 T01730153  RH  088%=      5-min Rain = 0
KMC1 240640Z 17007KT 17/15 A3006 RMK A01 T01730154  RH  088%=      5-min Rain = 0
KMC1 240641Z 18006KT 17/15 A3006 RMK A01 T01730154  RH  089%=      5-min Rain = 0
KMC1 240642Z 17007KT 17/15 A3006 RMK A01 T01730153  RH  089%=      5-min Rain = 0
KMC1 240643Z 17006KT 17/15 A3006 RMK A01 T01730153  RH  089%=      5-min Rain = 0
KMC1 240644Z 17006KT 17/15 A3006 RMK A01 T01730154  RH  089%=      5-min Rain = 0
KMC1 240645Z 17005KT 17/15 A3006 RMK A01 T01730154  RH  089%=      5-min Rain = 0
KMC1 240646Z 17005KT 17/15 A3006 RMK A01 T01730154  RH  089%=      5-min Rain = 0
KMC1 240647Z 17005KT 17/15 A3006 RMK A01 T01730154  RH  089%=      5-min Rain = 0
KMC1 240648Z 17006KT 17/15 A3006 RMK A01 T01730154  RH  089%=      5-min Rain = 0
KMC1 240649Z 17006KT 17/15 A3006 RMK A01 T01730154  RH  089%=      5-min Rain = 0
KMC1 240650Z 17006KT 17/15 A3006 RMK A01 T01730154  RH  089%=      5-min Rain = 0
KMC1 240651Z 17006KT 17/15 A3006 RMK A01 T01730154  RH  089%=      5-min Rain = 0
KMC1 240652Z 17005KT 17/15 A3006 RMK A01 T01730154  RH  089%=      5-min Rain = 0
KMC1 240653Z 17005KT 17/15 A3006 RMK A01 T01720154  RH  089%=      5-min Rain = 0
KMC1 240654Z 17006KT 17/15 A3006 RMK A01 T01720154  RH  089%=      5-min Rain = 0
KMC1 240655Z 16005KT 17/15 A3006 RMK A01 T01720154  RH  089%=      5-min Rain = 0
KMC1 240656Z 17005KT 17/15 A3006 RMK A01 T01720154  RH  089%=      5-min Rain = 0
KMC1 240657Z 16006KT 17/15 A3006 RMK A01 T01720154  RH  089%=      5-min Rain = 0
KMC1 240658Z 17006KT 17/15 A3006 RMK A01 T01710154  RH  089%=      5-min Rain = 0
KMC1 240659Z 16003KT 17/15 A3006 RMK A01 T01710154  RH  089%=      5-min Rain = 0
KMC1 240700Z 17006KT 17/15 A3006 RMK A01 T01710154  RH  090%=      5-min Rain = 0
KMC1 240701Z 17006KT 17/15 A3006 RMK A01 T01710154  RH  090%=      5-min Rain = 0
KMC1 240702Z 17004KT 17/15 A3006 RMK A01 T01710154  RH  090%=      5-min Rain = 0
KMC1 240703Z 17006KT 17/15 A3006 RMK A01 T01710154  RH  090%=      5-min Rain = 0
KMC1 240704Z 18005KT 17/15 A3006 RMK A01 T01700154  RH  090%=      5-min Rain = 0
KMC1 240705Z 17005KT 17/15 A3005 RMK A01 T01700154  RH  090%=      5-min Rain = 0
KMC1 240706Z 17005KT 17/15 A3005 RMK A01 T01700154  RH  090%=      5-min Rain = 0
KMC1 240707Z 17006KT 17/15 A3005 RMK A01 T01700154  RH  090%=      5-min Rain = 0
KMC1 240708Z 17005KT 17/15 A3005 RMK A01 T01690154  RH  091%=      5-min Rain = 0
KMC1 240709Z 16004KT 17/15 A3005 RMK A01 T01690154  RH  091%=      5-min Rain = 0
KMC1 240710Z 16004KT 17/15 A3005 RMK A01 T01690154  RH  090%=      5-min Rain = 0
KMC1 240711Z 17005KT 17/15 A3005 RMK A01 T01690153  RH  091%=      5-min Rain = 0
KMC1 240712Z 16003KT 17/15 A3005 RMK A01 T01690154  RH  091%=      5-min Rain = 0
KMC1 240713Z 17004KT 17/15 A3005 RMK A01 T01680154  RH  091%=      5-min Rain = 0
KMC1 240714Z 16005KT 17/15 A3005 RMK A01 T01690154  RH  091%=      5-min Rain = 0
KMC1 240715Z 17005KT 17/15 A3005 RMK A01 T01690154  RH  091%=      5-min Rain = 0
KMC1 240716Z 16004KT 17/15 A3005 RMK A01 T01690154  RH  091%=      5-min Rain = 0
KMC1 240717Z 17005KT 17/15 A3006 RMK A01 T01680154  RH  091%=      5-min Rain = 0
KMC1 240718Z 16004KT 17/15 A3006 RMK A01 T01680154  RH  091%=      5-min Rain = 0
KMC1 240719Z 16004KT 17/15 A3006 RMK A01 T01690154  RH  091%=      5-min Rain = 0
KMC1 240720Z 17004KT 17/15 A3006 RMK A01 T01680154  RH  091%=      5-min Rain = 0
KMC1 240721Z 16005KT 17/15 A3006 RMK A01 T01680154  RH  092%=      5-min Rain = 0
KMC1 240722Z 16004KT 17/15 A3006 RMK A01 T01680154  RH  092%=      5-min Rain = 0
KMC1 240723Z 17004KT 17/15 A3006 RMK A01 T01680154  RH  092%=      5-min Rain = 0
KMC1 240724Z 17005KT 17/15 A3006 RMK A01 T01680154  RH  092%=      5-min Rain = 0
KMC1 240725Z 16002KT 17/16 A3006 RMK A01 T01680155  RH  092%=      5-min Rain = 0
KMC1 240726Z 16003KT 17/16 A3006 RMK A01 T01680155  RH  092%=      5-min Rain = 0
KMC1 240727Z 17005KT 17/16 A3006 RMK A01 T01680155  RH  092%=      5-min Rain = 0
KMC1 240728Z 16005KT 17/16 A3006 RMK A01 T01690155  RH  092%=      5-min Rain = 0
KMC1 240729Z 16003KT 17/16 A3006 RMK A01 T01690155  RH  092%=      5-min Rain = 0
KMC1 240730Z 17004KT 17/16 A3006 RMK A01 T01690155  RH  091%=      5-min Rain = 0
KMC1 240731Z 16003KT 17/16 A3006 RMK A01 T01690155  RH  091%=      5-min Rain = 0
KMC1 240732Z 17002KT 17/16 A3006 RMK A01 T01690155  RH  091%=      5-min Rain = 0
KMC1 240733Z 18003KT 17/16 A3006 RMK A01 T01690155  RH  091%=      5-min Rain = 0
KMC1 240734Z 16004KT 17/16 A3006 RMK A01 T01690155  RH  091%=      5-min Rain = 0
KMC1 240735Z 17003KT 17/16 A3006 RMK A01 T01690155  RH  091%=      5-min Rain = 0
KMC1 240736Z 15003KT 17/16 A3006 RMK A01 T01690155  RH  091%=      5-min Rain = 0
KMC1 240737Z 16003KT 17/15 A3006 RMK A01 T01680154  RH  091%=      5-min Rain = 0
KMC1 240738Z 16004KT 17/15 A3006 RMK A01 T01680154  RH  091%=      5-min Rain = 0
KMC1 240739Z 16002KT 17/15 A3006 RMK A01 T01680154  RH  091%=      5-min Rain = 0
KMC1 240740Z 16002KT 17/15 A3006 RMK A01 T01670154  RH  092%=      5-min Rain = 0
KMC1 240741Z 17002KT 17/15 A3006 RMK A01 T01670154  RH  092%=      5-min Rain = 0
KMC1 240742Z 17003KT 17/15 A3006 RMK A01 T01670153  RH  092%=      5-min Rain = 0
KMC1 240743Z 18003KT 17/15 A3006 RMK A01 T01660153  RH  092%=      5-min Rain = 0
KMC1 240744Z 19003KT 17/15 A3006 RMK A01 T01660154  RH  092%=      5-min Rain = 0
KMC1 240745Z 19003KT 17/15 A3006 RMK A01 T01660154  RH  092%=      5-min Rain = 0
KMC1 240746Z 20002KT 17/15 A3006 RMK A01 T01660154  RH  093%=      5-min Rain = 0
KMC1 240747Z 21003KT 17/15 A3006 RMK A01 T01650153  RH  093%=      5-min Rain = 0
KMC1 240748Z 19004KT 17/15 A3006 RMK A01 T01650154  RH  093%=      5-min Rain = 0
KMC1 240749Z 21004KT 17/15 A3006 RMK A01 T01650154  RH  093%=      5-min Rain = 0
KMC1 240750Z 21003KT 17/15 A3006 RMK A01 T01650154  RH  093%=      5-min Rain = 0
KMC1 240751Z 20003KT 17/15 A3006 RMK A01 T01650154  RH  093%=      5-min Rain = 0
KMC1 240752Z 21004KT 17/15 A3006 RMK A01 T01650154  RH  093%=      5-min Rain = 0
KMC1 240753Z 20003KT 17/15 A3006 RMK A01 T01650154  RH  093%=      5-min Rain = 0
KMC1 240754Z 20003KT 17/15 A3006 RMK A01 T01650154  RH  093%=      5-min Rain = 0
KMC1 240755Z 20002KT 17/15 A3006 RMK A01 T01650154  RH  093%=      5-min Rain = 0
KMC1 240756Z 19003KT 17/15 A3006 RMK A01 T01650154  RH  093%=      5-min Rain = 0
KMC1 240757Z 20002KT 17/15 A3006 RMK A01 T01650154  RH  093%=      5-min Rain = 0
KMC1 240758Z 20002KT 17/15 A3006 RMK A01 T01650154  RH  093%=      5-min Rain = 0
KMC1 240759Z 19002KT 17/15 A3006 RMK A01 T01650154  RH  093%=      5-min Rain = 0
KMC1 240800Z 20003KT 17/15 A3006 RMK A01 T01650154  RH  093%=      5-min Rain = 0
KMC1 240801Z 19003KT 17/15 A3006 RMK A01 T01650154  RH  093%=      5-min Rain = 0
KMC1 240802Z 20003KT 17/15 A3006 RMK A01 T01650154  RH  093%=      5-min Rain = 0
KMC1 240803Z 19003KT 17/15 A3006 RMK A01 T01650154  RH  093%=      5-min Rain = 0
KMC1 240804Z 18003KT 17/15 A3006 RMK A01 T01650154  RH  093%=      5-min Rain = 0
KMC1 240805Z 18003KT 17/15 A3005 RMK A01 T01650154  RH  093%=      5-min Rain = 0
KMC1 240806Z 19003KT 17/15 A3005 RMK A01 T01650154  RH  093%=      5-min Rain = 0
KMC1 240807Z 18003KT 17/15 A3005 RMK A01 T01650154  RH  093%=      5-min Rain = 0
KMC1 240808Z 18002KT 17/16 A3005 RMK A01 T01650155  RH  093%=      5-min Rain = 0
KMC1 240809Z 18003KT 17/15 A3005 RMK A01 T01650154  RH  093%=      5-min Rain = 0
KMC1 240810Z 17004KT 17/15 A3005 RMK A01 T01650154  RH  093%=      5-min Rain = 0
KMC1 240811Z 18003KT 17/15 A3005 RMK A01 T01650154  RH  093%=      5-min Rain = 0
KMC1 240812Z 17002KT 16/15 A3005 RMK A01 T01640153  RH  093%=      5-min Rain = 0
KMC1 240813Z 17004KT 16/15 A3005 RMK A01 T01640153  RH  093%=      5-min Rain = 0
KMC1 240814Z 16002KT 16/15 A3005 RMK A01 T01640153  RH  093%=      5-min Rain = 0
KMC1 240815Z 16003KT 16/15 A3005 RMK A01 T01630152  RH  093%=      5-min Rain = 0
KMC1 240816Z 16003KT 16/15 A3005 RMK A01 T01630152  RH  093%=      5-min Rain = 0
KMC1 240817Z 16005KT 16/15 A3005 RMK A01 T01630153  RH  094%=      5-min Rain = 0
KMC1 240818Z 16004KT 16/15 A3005 RMK A01 T01630153  RH  094%=      5-min Rain = 0
KMC1 240819Z 15003KT 16/15 A3005 RMK A01 T01630153  RH  094%=      5-min Rain = 0
KMC1 240820Z 17003KT 16/15 A3005 RMK A01 T01630153  RH  094%=      5-min Rain = 0
KMC1 240821Z 16003KT 16/15 A3005 RMK A01 T01630153  RH  094%=      5-min Rain = 0
KMC1 240822Z 15004KT 16/15 A3005 RMK A01 T01630153  RH  094%=      5-min Rain = 0
KMC1 240823Z 16004KT 16/15 A3005 RMK A01 T01630153  RH  094%=      5-min Rain = 0
KMC1 240824Z 16005KT 16/15 A3005 RMK A01 T01630153  RH  094%=      5-min Rain = 0
KMC1 240825Z 16004KT 16/15 A3005 RMK A01 T01630153  RH  094%=      5-min Rain = 0
KMC1 240826Z 16005KT 16/15 A3005 RMK A01 T01630153  RH  094%=      5-min Rain = 0
KMC1 240827Z 16004KT 16/15 A3005 RMK A01 T01630153  RH  094%=      5-min Rain = 0
KMC1 240828Z 16004KT 16/15 A3005 RMK A01 T01640154  RH  094%=      5-min Rain = 0
KMC1 240829Z 16004KT 16/15 A3005 RMK A01 T01640153  RH  093%=      5-min Rain = 0
KMC1 240830Z 16004KT 16/15 A3005 RMK A01 T01640153  RH  093%=      5-min Rain = 0
KMC1 240831Z 17005KT 16/15 A3005 RMK A01 T01640153  RH  093%=      5-min Rain = 0
KMC1 240832Z 16004KT 16/15 A3005 RMK A01 T01640153  RH  093%=      5-min Rain = 0
KMC1 240833Z 16005KT 16/15 A3005 RMK A01 T01640153  RH  093%=      5-min Rain = 0
KMC1 240834Z 17005KT 16/15 A3005 RMK A01 T01640154  RH  093%=      5-min Rain = 0
KMC1 240835Z 17005KT 17/15 A3005 RMK A01 T01650154  RH  093%=      5-min Rain = 0
KMC1 240836Z 17005KT 17/15 A3004 RMK A01 T01660154  RH  093%=      5-min Rain = 0
KMC1 240837Z 15004KT 17/15 A3004 RMK A01 T01660154  RH  093%=      5-min Rain = 0
KMC1 240838Z 16004KT 17/15 A3004 RMK A01 T01660154  RH  093%=      5-min Rain = 0
KMC1 240839Z 16003KT 17/15 A3004 RMK A01 T01660154  RH  092%=      5-min Rain = 0
KMC1 240840Z 16003KT 17/15 A3004 RMK A01 T01660154  RH  092%=      5-min Rain = 0
KMC1 240841Z 16003KT 17/15 A3004 RMK A01 T01660154  RH  092%=      5-min Rain = 0
KMC1 240842Z 16003KT 17/15 A3004 RMK A01 T01660154  RH  092%=      5-min Rain = 0
KMC1 240843Z 15004KT 17/15 A3004 RMK A01 T01660154  RH  093%=      5-min Rain = 0
KMC1 240844Z 16004KT 17/15 A3004 RMK A01 T01660154  RH  093%=      5-min Rain = 0
KMC1 240845Z 16004KT 17/15 A3004 RMK A01 T01660154  RH  093%=      5-min Rain = 0
KMC1 240846Z 16003KT 17/16 A3004 RMK A01 T01660155  RH  093%=      5-min Rain = 0
KMC1 240847Z 16005KT 17/15 A3004 RMK A01 T01660154  RH  093%=      5-min Rain = 0
KMC1 240848Z 16004KT 17/16 A3004 RMK A01 T01670155  RH  093%=      5-min Rain = 0
KMC1 240849Z 15004KT 17/15 A3004 RMK A01 T01670154  RH  092%=      5-min Rain = 0
KMC1 240850Z 15004KT 17/15 A3004 RMK A01 T01670154  RH  092%=      5-min Rain = 0
KMC1 240851Z 14003KT 17/15 A3004 RMK A01 T01670154  RH  092%=      5-min Rain = 0
KMC1 240852Z 15004KT 17/15 A3004 RMK A01 T01670154  RH  092%=      5-min Rain = 0
KMC1 240853Z 14003KT 17/15 A3004 RMK A01 T01670154  RH  092%=      5-min Rain = 0
KMC1 240854Z 14003KT 17/16 A3004 RMK A01 T01670155  RH  092%=      5-min Rain = 0
KMC1 240855Z 15003KT 17/16 A3004 RMK A01 T01670155  RH  092%=      5-min Rain = 0
KMC1 240856Z 15003KT 17/16 A3004 RMK A01 T01670155  RH  093%=      5-min Rain = 0
KMC1 240857Z 15003KT 17/16 A3004 RMK A01 T01670155  RH  093%=      5-min Rain = 0
KMC1 240858Z 15003KT 17/16 A3004 RMK A01 T01670155  RH  093%=      5-min Rain = 0
KMC1 240859Z 15003KT 17/16 A3004 RMK A01 T01670155  RH  093%=      5-min Rain = 0
KMC1 240900Z 16003KT 17/16 A3004 RMK A01 T01670155  RH  093%=      5-min Rain = 0
KMC1 240901Z 15003KT 17/16 A3004 RMK A01 T01670155  RH  093%=      5-min Rain = 0
KMC1 240902Z 16002KT 17/16 A3004 RMK A01 T01670155  RH  092%=      5-min Rain = 0
KMC1 240903Z 17004KT 17/16 A3004 RMK A01 T01670155  RH  092%=      5-min Rain = 0
KMC1 240904Z 15002KT 17/15 A3004 RMK A01 T01670154  RH  092%=      5-min Rain = 0
KMC1 240905Z 17002KT 17/15 A3004 RMK A01 T01670154  RH  092%=      5-min Rain = 0
KMC1 240906Z 16002KT 17/16 A3004 RMK A01 T01670155  RH  092%=      5-min Rain = 0
KMC1 240907Z 17002KT 17/15 A3004 RMK A01 T01670154  RH  092%=      5-min Rain = 0
KMC1 240908Z 15003KT 17/15 A3004 RMK A01 T01670154  RH  092%=      5-min Rain = 0
KMC1 240909Z 16003KT 17/15 A3004 RMK A01 T01670154  RH  092%=      5-min Rain = 0
KMC1 240910Z 17003KT 17/15 A3004 RMK A01 T01670154  RH  092%=      5-min Rain = 0
KMC1 240911Z 16003KT 17/15 A3004 RMK A01 T01680154  RH  092%=      5-min Rain = 0
KMC1 240912Z 15003KT 17/15 A3004 RMK A01 T01680154  RH  092%=      5-min Rain = 0
KMC1 240913Z 16002KT 17/15 A3004 RMK A01 T01680154  RH  092%=      5-min Rain = 0
KMC1 240914Z 17005KT 17/15 A3004 RMK A01 T01680154  RH  092%=      5-min Rain = 0
KMC1 240915Z 16004KT 17/15 A3004 RMK A01 T01680154  RH  092%=      5-min Rain = 0
KMC1 240916Z 17004KT 17/15 A3004 RMK A01 T01670154  RH  092%=      5-min Rain = 0
KMC1 240917Z 17003KT 17/15 A3004 RMK A01 T01680154  RH  092%=      5-min Rain = 0
KMC1 240918Z 17004KT 17/15 A3004 RMK A01 T01680154  RH  091%=      5-min Rain = 0
KMC1 240919Z 18004KT 17/15 A3004 RMK A01 T01680154  RH  092%=      5-min Rain = 0
KMC1 240920Z 16003KT 17/15 A3004 RMK A01 T01680154  RH  092%=      5-min Rain = 0
KMC1 240921Z 17004KT 17/15 A3004 RMK A01 T01680154  RH  092%=      5-min Rain = 0
KMC1 240922Z 17004KT 17/15 A3004 RMK A01 T01680154  RH  092%=      5-min Rain = 0
KMC1 240923Z 17005KT 17/15 A3004 RMK A01 T01680154  RH  092%=      5-min Rain = 0
KMC1 240924Z 17004KT 17/15 A3004 RMK A01 T01680154  RH  092%=      5-min Rain = 0
KMC1 240925Z 17004KT 17/15 A3004 RMK A01 T01680154  RH  091%=      5-min Rain = 0
KMC1 240926Z 17003KT 17/15 A3004 RMK A01 T01680154  RH  091%=      5-min Rain = 0
KMC1 240927Z 17003KT 17/15 A3004 RMK A01 T01680154  RH  091%=      5-min Rain = 0
KMC1 240928Z 17003KT 17/15 A3004 RMK A01 T01680154  RH  091%=      5-min Rain = 0
KMC1 240929Z 17003KT 17/15 A3004 RMK A01 T01680154  RH  091%=      5-min Rain = 0
KMC1 240930Z 17003KT 17/15 A3004 RMK A01 T01680154  RH  091%=      5-min Rain = 0
KMC1 240931Z 17004KT 17/15 A3004 RMK A01 T01680154  RH  091%=      5-min Rain = 0
KMC1 240932Z 16002KT 17/15 A3004 RMK A01 T01680154  RH  091%=      5-min Rain = 0
KMC1 240933Z 16002KT 17/15 A3004 RMK A01 T01680154  RH  091%=      5-min Rain = 0
KMC1 240934Z 17003KT 17/15 A3004 RMK A01 T01680154  RH  091%=      5-min Rain = 0
KMC1 240935Z 16002KT 17/15 A3004 RMK A01 T01680154  RH  091%=      5-min Rain = 0
KMC1 240936Z 15002KT 17/15 A3004 RMK A01 T01680154  RH  092%=      5-min Rain = 0
KMC1 240937Z 15002KT 17/15 A3004 RMK A01 T01680154  RH  092%=      5-min Rain = 0
KMC1 240938Z 15002KT 17/15 A3004 RMK A01 T01670154  RH  092%=      5-min Rain = 0
KMC1 240939Z 15002KT 17/15 A3004 RMK A01 T01670154  RH  092%=      5-min Rain = 0
KMC1 240940Z 15002KT 17/15 A3004 RMK A01 T01670154  RH  092%=      5-min Rain = 0
KMC1 240941Z 15002KT 17/15 A3004 RMK A01 T01670154  RH  092%=      5-min Rain = 0
KMC1 240942Z 16002KT 17/15 A3004 RMK A01 T01670154  RH  092%=      5-min Rain = 0
KMC1 240943Z 14002KT 17/15 A3004 RMK A01 T01670154  RH  092%=      5-min Rain = 0
KMC1 240944Z 15003KT 17/15 A3004 RMK A01 T01670154  RH  092%=      5-min Rain = 0
KMC1 240945Z 14003KT 17/15 A3004 RMK A01 T01660153  RH  092%=      5-min Rain = 0
KMC1 240946Z 15002KT 17/15 A3004 RMK A01 T01660153  RH  092%=      5-min Rain = 0
KMC1 240947Z 15002KT 17/15 A3004 RMK A01 T01660154  RH  092%=      5-min Rain = 0
KMC1 240948Z 16002KT 17/15 A3004 RMK A01 T01660154  RH  092%=      5-min Rain = 0
KMC1 240949Z 16003KT 17/15 A3004 RMK A01 T01650153  RH  092%=      5-min Rain = 0
KMC1 240950Z 16003KT 17/15 A3004 RMK A01 T01650153  RH  092%=      5-min Rain = 0
KMC1 240951Z 16002KT 17/15 A3004 RMK A01 T01650153  RH  092%=      5-min Rain = 0
KMC1 240952Z 17003KT 17/15 A3004 RMK A01 T01650153  RH  092%=      5-min Rain = 0
KMC1 240953Z 17003KT 17/15 A3004 RMK A01 T01650153  RH  092%=      5-min Rain = 0
KMC1 240954Z 17003KT 17/15 A3004 RMK A01 T01660153  RH  092%=      5-min Rain = 0
KMC1 240955Z 17003KT 17/15 A3004 RMK A01 T01650153  RH  092%=      5-min Rain = 0
KMC1 240956Z 17003KT 17/15 A3004 RMK A01 T01650153  RH  092%=      5-min Rain = 0
KMC1 240957Z 17003KT 17/15 A3004 RMK A01 T01650153  RH  092%=      5-min Rain = 0
KMC1 240958Z 17003KT 17/15 A3004 RMK A01 T01650153  RH  092%=      5-min Rain = 0
KMC1 240959Z 17004KT 17/15 A3004 RMK A01 T01650153  RH  092%=      5-min Rain = 0
KMC1 241000Z 17003KT 17/15 A3004 RMK A01 T01650153  RH  092%=      5-min Rain = 0
KMC1 241001Z 17004KT 17/15 A3004 RMK A01 T01650153  RH  092%=      5-min Rain = 0
KMC1 241002Z 17003KT 17/15 A3004 RMK A01 T01650153  RH  093%=      5-min Rain = 0
KMC1 241003Z 17004KT 17/15 A3004 RMK A01 T01660153  RH  092%=      5-min Rain = 0
KMC1 241004Z 17004KT 17/15 A3004 RMK A01 T01660153  RH  092%=      5-min Rain = 0
KMC1 241005Z 16005KT 17/15 A3004 RMK A01 T01660154  RH  092%=      5-min Rain = 0
KMC1 241006Z 17005KT 17/15 A3004 RMK A01 T01670154  RH  092%=      5-min Rain = 0
KMC1 241007Z 17004KT 17/15 A3004 RMK A01 T01670154  RH  092%=      5-min Rain = 0
KMC1 241008Z 17004KT 17/15 A3004 RMK A01 T01680154  RH  092%=      5-min Rain = 0
KMC1 241009Z 17005KT 17/15 A3004 RMK A01 T01680154  RH  092%=      5-min Rain = 0
KMC1 241010Z 17005KT 17/15 A3004 RMK A01 T01680154  RH  092%=      5-min Rain = 0
KMC1 241011Z 17005KT 17/16 A3004 RMK A01 T01690155  RH  092%=      5-min Rain = 0
KMC1 241012Z 18004KT 17/16 A3004 RMK A01 T01680155  RH  092%=      5-min Rain = 0
KMC1 241013Z 17004KT 17/15 A3004 RMK A01 T01680154  RH  092%=      5-min Rain = 0
KMC1 241014Z 17005KT 17/16 A3004 RMK A01 T01680155  RH  092%=      5-min Rain = 0
KMC1 241015Z 18007KT 17/16 A3004 RMK A01 T01690155  RH  092%=      5-min Rain = 0
KMC1 241016Z 17006KT 17/16 A3004 RMK A01 T01700155  RH  091%=      5-min Rain = 0
KMC1 241017Z 16003KT 17/16 A3004 RMK A01 T01700155  RH  091%=      5-min Rain = 0
KMC1 241018Z 17005KT 17/16 A3004 RMK A01 T01700155  RH  091%=      5-min Rain = 0
KMC1 241019Z 17004KT 17/16 A3004 RMK A01 T01710155  RH  091%=      5-min Rain = 0
KMC1 241020Z 17004KT 17/16 A3004 RMK A01 T01700155  RH  091%=      5-min Rain = 0
KMC1 241021Z 16006KT 17/16 A3004 RMK A01 T01710155  RH  091%=      5-min Rain = 0
KMC1 241022Z 17005KT 17/16 A3004 RMK A01 T01710155  RH  090%=      5-min Rain = 0
KMC1 241023Z 17004KT 17/16 A3004 RMK A01 T01710155  RH  090%=      5-min Rain = 0
KMC1 241024Z 17004KT 17/16 A3004 RMK A01 T01720155  RH  090%=      5-min Rain = 0
KMC1 241025Z 17004KT 17/16 A3004 RMK A01 T01720155  RH  090%=      5-min Rain = 0
KMC1 241026Z 19004KT 17/16 A3004 RMK A01 T01720155  RH  090%=      5-min Rain = 0
KMC1 241027Z 17005KT 17/16 A3004 RMK A01 T01720155  RH  090%=      5-min Rain = 0
KMC1 241028Z 18005KT 17/16 A3004 RMK A01 T01720155  RH  090%=      5-min Rain = 0
KMC1 241029Z 17005KT 17/16 A3004 RMK A01 T01720155  RH  090%=      5-min Rain = 0
KMC1 241030Z 18005KT 17/16 A3004 RMK A01 T01720156  RH  090%=      5-min Rain = 0
KMC1 241031Z 18003KT 17/16 A3004 RMK A01 T01720155  RH  090%=      5-min Rain = 0
KMC1 241032Z 18004KT 17/16 A3004 RMK A01 T01730155  RH  090%=      5-min Rain = 0
KMC1 241033Z 17005KT 17/16 A3004 RMK A01 T01730156  RH  090%=      5-min Rain = 0
KMC1 241034Z 18002KT 17/16 A3004 RMK A01 T01730155  RH  090%=      5-min Rain = 0
KMC1 241035Z 18003KT 17/16 A3004 RMK A01 T01730156  RH  090%=      5-min Rain = 0
KMC1 241036Z 17004KT 17/16 A3004 RMK A01 T01730155  RH  090%=      5-min Rain = 0
KMC1 241037Z 17004KT 17/16 A3004 RMK A01 T01730156  RH  090%=      5-min Rain = 0
KMC1 241038Z 16004KT 17/16 A3004 RMK A01 T01730156  RH  090%=      5-min Rain = 0
KMC1 241039Z 18004KT 17/16 A3004 RMK A01 T01730155  RH  090%=      5-min Rain = 0
KMC1 241040Z 17004KT 17/16 A3004 RMK A01 T01730155  RH  090%=      5-min Rain = 0
KMC1 241041Z 18004KT 17/16 A3004 RMK A01 T01730155  RH  089%=      5-min Rain = 0
KMC1 241042Z 18003KT 17/16 A3004 RMK A01 T01730155  RH  089%=      5-min Rain = 0
KMC1 241043Z 17005KT 17/16 A3004 RMK A01 T01730155  RH  089%=      5-min Rain = 0
KMC1 241044Z 18005KT 17/16 A3004 RMK A01 T01730155  RH  090%=      5-min Rain = 0
KMC1 241045Z 18004KT 17/16 A3004 RMK A01 T01730156  RH  090%=      5-min Rain = 0
KMC1 241046Z 19003KT 17/16 A3004 RMK A01 T01730156  RH  089%=      5-min Rain = 0
KMC1 241047Z 18003KT 17/16 A3005 RMK A01 T01730155  RH  089%=      5-min Rain = 0
KMC1 241048Z 19003KT 17/16 A3005 RMK A01 T01730156  RH  089%=      5-min Rain = 0
KMC1 241049Z 18002KT 17/16 A3005 RMK A01 T01730155  RH  089%=      5-min Rain = 0
KMC1 241050Z 19004KT 17/16 A3005 RMK A01 T01730156  RH  089%=      5-min Rain = 0
KMC1 241051Z 18003KT 17/16 A3005 RMK A01 T01730156  RH  090%=      5-min Rain = 0
KMC1 241052Z 18005KT 17/16 A3005 RMK A01 T01730155  RH  090%=      5-min Rain = 0
KMC1 241053Z 18004KT 17/16 A3005 RMK A01 T01730156  RH  090%=      5-min Rain = 0
KMC1 241054Z 19003KT 17/16 A3005 RMK A01 T01730155  RH  090%=      5-min Rain = 0
KMC1 241055Z 20004KT 17/16 A3005 RMK A01 T01730155  RH  090%=      5-min Rain = 0
KMC1 241056Z 20004KT 17/16 A3005 RMK A01 T01730156  RH  090%=      5-min Rain = 0
KMC1 241057Z 19004KT 17/16 A3005 RMK A01 T01730156  RH  090%=      5-min Rain = 0
KMC1 241058Z 19004KT 17/16 A3005 RMK A01 T01730156  RH  090%=      5-min Rain = 0
KMC1 241059Z 19003KT 17/16 A3005 RMK A01 T01730156  RH  090%=      5-min Rain = 0
KMC1 241100Z 19003KT 17/16 A3005 RMK A01 T01730156  RH  090%=      5-min Rain = 0
KMC1 241101Z 19004KT 17/16 A3005 RMK A01 T01720156  RH  090%=      5-min Rain = 0
KMC1 241102Z 18005KT 17/16 A3005 RMK A01 T01720156  RH  090%=      5-min Rain = 0
KMC1 241103Z 20003KT 17/16 A3005 RMK A01 T01720156  RH  090%=      5-min Rain = 0
KMC1 241104Z 19003KT 17/16 A3005 RMK A01 T01720156  RH  090%=      5-min Rain = 0
KMC1 241105Z 19003KT 17/16 A3005 RMK A01 T01720156  RH  090%=      5-min Rain = 0
KMC1 241106Z 20003KT 17/16 A3005 RMK A01 T01720156  RH  090%=      5-min Rain = 0
KMC1 241107Z 19002KT 17/16 A3005 RMK A01 T01720156  RH  090%=      5-min Rain = 0
KMC1 241108Z 18004KT 17/16 A3005 RMK A01 T01720156  RH  090%=      5-min Rain = 0
KMC1 241109Z 19005KT 17/16 A3005 RMK A01 T01720156  RH  090%=      5-min Rain = 0
KMC1 241110Z 19003KT 17/16 A3005 RMK A01 T01720156  RH  090%=      5-min Rain = 0
KMC1 241111Z 19003KT 17/16 A3005 RMK A01 T01720155  RH  090%=      5-min Rain = 0
KMC1 241112Z 19005KT 17/16 A3005 RMK A01 T01720156  RH  090%=      5-min Rain = 0
KMC1 241113Z 18005KT 17/16 A3005 RMK A01 T01720156  RH  090%=      5-min Rain = 0
KMC1 241114Z 19005KT 17/16 A3005 RMK A01 T01720155  RH  090%=      5-min Rain = 0
KMC1 241115Z 18004KT 17/16 A3005 RMK A01 T01720156  RH  090%=      5-min Rain = 0
KMC1 241116Z 17004KT 17/16 A3005 RMK A01 T01720156  RH  090%=      5-min Rain = 0
KMC1 241117Z 17004KT 17/16 A3005 RMK A01 T01720156  RH  090%=      5-min Rain = 0
KMC1 241118Z 17004KT 17/16 A3005 RMK A01 T01720156  RH  090%=      5-min Rain = 0
KMC1 241119Z 18007KT 17/16 A3005 RMK A01 T01720156  RH  090%=      5-min Rain = 0
KMC1 241120Z 18005KT 17/16 A3005 RMK A01 T01720156  RH  090%=      5-min Rain = 0
KMC1 241121Z 18005KT 17/16 A3005 RMK A01 T01720156  RH  090%=      5-min Rain = 0
KMC1 241122Z 17006KT 17/16 A3005 RMK A01 T01720156  RH  090%=      5-min Rain = 0
KMC1 241123Z 18007KT 17/16 A3005 RMK A01 T01720156  RH  090%=      5-min Rain = 0
KMC1 241124Z 17004KT 17/16 A3005 RMK A01 T01720156  RH  090%=      5-min Rain = 0
KMC1 241125Z 18005KT 17/16 A3005 RMK A01 T01720156  RH  090%=      5-min Rain = 0
KMC1 241126Z 18005KT 17/16 A3005 RMK A01 T01720156  RH  090%=      5-min Rain = 0
KMC1 241127Z 17005KT 17/16 A3005 RMK A01 T01710156  RH  091%=      5-min Rain = 0
KMC1 241128Z 17006KT 17/16 A3005 RMK A01 T01710156  RH  091%=      5-min Rain = 0
KMC1 241129Z 18005KT 17/16 A3005 RMK A01 T01710156  RH  091%=      5-min Rain = 0
KMC1 241130Z 18005KT 17/16 A3005 RMK A01 T01710156  RH  091%=      5-min Rain = 0
KMC1 241131Z 18005KT 17/16 A3005 RMK A01 T01700156  RH  091%=      5-min Rain = 0
KMC1 241132Z 18006KT 17/16 A3005 RMK A01 T01710156  RH  091%=      5-min Rain = 0
KMC1 241133Z 17004KT 17/16 A3005 RMK A01 T01700156  RH  091%=      5-min Rain = 0
KMC1 241134Z 18004KT 17/16 A3005 RMK A01 T01700156  RH  091%=      5-min Rain = 0
KMC1 241135Z 18004KT 17/16 A3005 RMK A01 T01700156  RH  091%=      5-min Rain = 0
KMC1 241136Z 18004KT 17/16 A3005 RMK A01 T01690156  RH  092%=      5-min Rain = 0
KMC1 241137Z 19004KT 17/16 A3005 RMK A01 T01690156  RH  092%=      5-min Rain = 0
KMC1 241138Z 18005KT 17/16 A3005 RMK A01 T01690156  RH  092%=      5-min Rain = 0
KMC1 241139Z 18005KT 17/16 A3005 RMK A01 T01690156  RH  092%=      5-min Rain = 0
KMC1 241140Z 18005KT 17/16 A3005 RMK A01 T01690156  RH  092%=      5-min Rain = 0
KMC1 241141Z 19005KT 17/16 A3005 RMK A01 T01690157  RH  092%=      5-min Rain = 0
KMC1 241142Z 18004KT 17/16 A3005 RMK A01 T01690156  RH  092%=      5-min Rain = 0
KMC1 241143Z 18004KT 17/16 A3005 RMK A01 T01690156  RH  092%=      5-min Rain = 0
KMC1 241144Z 19004KT 17/16 A3005 RMK A01 T01690156  RH  092%=      5-min Rain = 0
KMC1 241145Z 18004KT 17/16 A3005 RMK A01 T01690156  RH  092%=      5-min Rain = 0
KMC1 241146Z 18004KT 17/16 A3005 RMK A01 T01690156  RH  092%=      5-min Rain = 0
KMC1 241147Z 17004KT 17/16 A3005 RMK A01 T01690156  RH  092%=      5-min Rain = 0
KMC1 241148Z 18004KT 17/16 A3005 RMK A01 T01680156  RH  092%=      5-min Rain = 0
KMC1 241149Z 18004KT 17/16 A3005 RMK A01 T01690156  RH  092%=      5-min Rain = 0
KMC1 241150Z 18005KT 17/16 A3005 RMK A01 T01680156  RH  093%=      5-min Rain = 0
KMC1 241151Z 18005KT 17/16 A3005 RMK A01 T01680156  RH  093%=      5-min Rain = 0
KMC1 241152Z 18004KT 17/16 A3005 RMK A01 T01680156  RH  093%=      5-min Rain = 0
KMC1 241153Z 18005KT 17/16 A3005 RMK A01 T01680157  RH  093%=      5-min Rain = 0
KMC1 241154Z 18004KT 17/16 A3005 RMK A01 T01680157  RH  093%=      5-min Rain = 0
KMC1 241155Z 18004KT 17/16 A3005 RMK A01 T01680157  RH  093%=      5-min Rain = 0
KMC1 241156Z 17004KT 17/16 A3005 RMK A01 T01680157  RH  093%=      5-min Rain = 0
KMC1 241157Z 17004KT 17/16 A3005 RMK A01 T01680157  RH  093%=      5-min Rain = 0
KMC1 241158Z 17005KT 17/16 A3006 RMK A01 T01680157  RH  093%=      5-min Rain = 0
KMC1 241159Z 18004KT 17/16 A3006 RMK A01 T01680157  RH  093%=      5-min Rain = 0
KMC1 241200Z 17004KT 17/16 A3006 RMK A01 T01680157  RH  093%=      5-min Rain = 0
KMC1 241201Z 17003KT 17/16 A3006 RMK A01 T01680157  RH  093%=      5-min Rain = 0
KMC1 241202Z 18004KT 17/16 A3006 RMK A01 T01680157  RH  093%=      5-min Rain = 0
KMC1 241203Z 18003KT 17/16 A3006 RMK A01 T01680157  RH  093%=      5-min Rain = 0
KMC1 241204Z 19003KT 17/16 A3006 RMK A01 T01680158  RH  093%=      5-min Rain = 0
KMC1 241205Z 18003KT 17/16 A3006 RMK A01 T01680157  RH  093%=      5-min Rain = 0
KMC1 241206Z 18004KT 17/16 A3006 RMK A01 T01680157  RH  093%=      5-min Rain = 0
KMC1 241207Z 20004KT 17/16 A3006 RMK A01 T01680157  RH  093%=      5-min Rain = 0
KMC1 241208Z 19003KT 17/16 A3006 RMK A01 T01680158  RH  093%=      5-min Rain = 0
KMC1 241209Z 19003KT 17/16 A3006 RMK A01 T01680158  RH  093%=      5-min Rain = 0
KMC1 241210Z 19003KT 17/16 A3006 RMK A01 T01680158  RH  093%=      5-min Rain = 0
KMC1 241211Z 19004KT 17/16 A3006 RMK A01 T01680158  RH  094%=      5-min Rain = 0
KMC1 241212Z 19004KT 17/16 A3006 RMK A01 T01680158  RH  094%=      5-min Rain = 0
KMC1 241213Z 19004KT 17/16 A3006 RMK A01 T01680158  RH  094%=      5-min Rain = 0
KMC1 241214Z 18004KT 17/16 A3006 RMK A01 T01680158  RH  094%=      5-min Rain = 0
KMC1 241215Z 18004KT 17/16 A3006 RMK A01 T01680158  RH  094%=      5-min Rain = 0
KMC1 241216Z 18005KT 17/16 A3006 RMK A01 T01690159  RH  094%=      5-min Rain = 0
KMC1 241217Z 18005KT 17/16 A3006 RMK A01 T01690159  RH  094%=      5-min Rain = 0
KMC1 241218Z 18004KT 17/16 A3006 RMK A01 T01690159  RH  094%=      5-min Rain = 0
KMC1 241219Z 18005KT 17/16 A3006 RMK A01 T01690159  RH  094%=      5-min Rain = 0
KMC1 241220Z 17005KT 17/16 A3006 RMK A01 T01690159  RH  094%=      5-min Rain = 0
KMC1 241221Z 18005KT 17/16 A3006 RMK A01 T01690159  RH  094%=      5-min Rain = 0
KMC1 241222Z 18005KT 17/16 A3006 RMK A01 T01690159  RH  094%=      5-min Rain = 0
KMC1 241223Z 17005KT 17/16 A3006 RMK A01 T01690159  RH  094%=      5-min Rain = 0
KMC1 241224Z 18005KT 17/16 A3006 RMK A01 T01690159  RH  094%=      5-min Rain = 0
KMC1 241225Z 18005KT 17/16 A3006 RMK A01 T01690160  RH  094%=      5-min Rain = 0
KMC1 241226Z 18004KT 17/16 A3006 RMK A01 T01690159  RH  094%=      5-min Rain = 0
KMC1 241227Z 18004KT 17/16 A3006 RMK A01 T01680159  RH  094%=      5-min Rain = 0
KMC1 241228Z 18004KT 17/16 A3006 RMK A01 T01680159  RH  094%=      5-min Rain = 0
KMC1 241229Z 18004KT 17/16 A3006 RMK A01 T01680159  RH  094%=      5-min Rain = 0
KMC1 241230Z 18004KT 17/16 A3006 RMK A01 T01680159  RH  094%=      5-min Rain = 0
KMC1 241231Z 18003KT 17/16 A3006 RMK A01 T01690160  RH  094%=      5-min Rain = 0
KMC1 241232Z 19004KT 17/16 A3007 RMK A01 T01690160  RH  094%=      5-min Rain = 0
KMC1 241233Z 19004KT 17/16 A3007 RMK A01 T01690160  RH  095%=      5-min Rain = 0
KMC1 241234Z 19004KT 17/16 A3007 RMK A01 T01680160  RH  094%=      5-min Rain = 0
KMC1 241235Z 19002KT 17/16 A3007 RMK A01 T01690160  RH  094%=      5-min Rain = 0
KMC1 241236Z 19003KT 17/16 A3007 RMK A01 T01680160  RH  094%=      5-min Rain = 0
KMC1 241237Z 18005KT 17/16 A3007 RMK A01 T01690160  RH  094%=      5-min Rain = 0
KMC1 241238Z 18005KT 17/16 A3007 RMK A01 T01690160  RH  095%=      5-min Rain = 0
KMC1 241239Z 18004KT 17/16 A3007 RMK A01 T01690160  RH  095%=      5-min Rain = 0
KMC1 241240Z 19004KT 17/16 A3007 RMK A01 T01690160  RH  094%=      5-min Rain = 0
KMC1 241241Z 19004KT 17/16 A3007 RMK A01 T01690160  RH  094%=      5-min Rain = 0
KMC1 241242Z 18003KT 17/16 A3007 RMK A01 T01690160  RH  094%=      5-min Rain = 0
KMC1 241243Z 17003KT 17/16 A3007 RMK A01 T01690160  RH  094%=      5-min Rain = 0
KMC1 241244Z 17004KT 17/16 A3007 RMK A01 T01690160  RH  094%=      5-min Rain = 0
KMC1 241245Z 17003KT 17/16 A3007 RMK A01 T01700160  RH  094%=      5-min Rain = 0
KMC1 241246Z 18003KT 17/16 A3007 RMK A01 T01700160  RH  094%=      5-min Rain = 0
KMC1 241247Z 18005KT 17/16 A3007 RMK A01 T01700160  RH  094%=      5-min Rain = 0
KMC1 241248Z 18004KT 17/16 A3007 RMK A01 T01700160  RH  094%=      5-min Rain = 0
KMC1 241249Z 18003KT 17/16 A3007 RMK A01 T01700161  RH  094%=      5-min Rain = 0
KMC1 241250Z 18004KT 17/16 A3007 RMK A01 T01700160  RH  094%=      5-min Rain = 0
KMC1 241251Z 18003KT 17/16 A3007 RMK A01 T01700160  RH  094%=      5-min Rain = 0
KMC1 241252Z 18005KT 17/16 A3007 RMK A01 T01700160  RH  094%=      5-min Rain = 0
KMC1 241253Z 18004KT 17/16 A3007 RMK A01 T01700161  RH  094%=      5-min Rain = 0
KMC1 241254Z 18003KT 17/16 A3007 RMK A01 T01700160  RH  094%=      5-min Rain = 0
KMC1 241255Z 17004KT 17/16 A3007 RMK A01 T01700160  RH  094%=      5-min Rain = 0
KMC1 241256Z 18004KT 17/16 A3007 RMK A01 T01710161  RH  094%=      5-min Rain = 0
KMC1 241257Z 18003KT 17/16 A3007 RMK A01 T01710161  RH  094%=      5-min Rain = 0
KMC1 241258Z 17003KT 17/16 A3007 RMK A01 T01710161  RH  094%=      5-min Rain = 0
KMC1 241259Z 18004KT 17/16 A3007 RMK A01 T01710160  RH  093%=      5-min Rain = 0
KMC1 241300Z 18004KT 17/16 A3007 RMK A01 T01710161  RH  093%=      5-min Rain = 0
KMC1 241301Z 18003KT 17/16 A3007 RMK A01 T01710161  RH  093%=      5-min Rain = 0
KMC1 241302Z 18003KT 17/16 A3008 RMK A01 T01720161  RH  093%=      5-min Rain = 0
KMC1 241303Z 18004KT 17/16 A3008 RMK A01 T01710161  RH  093%=      5-min Rain = 0
KMC1 241304Z 18003KT 17/16 A3008 RMK A01 T01720161  RH  093%=      5-min Rain = 0
KMC1 241305Z 18004KT 17/16 A3008 RMK A01 T01720161  RH  093%=      5-min Rain = 0
KMC1 241306Z 19002KT 17/16 A3008 RMK A01 T01720161  RH  093%=      5-min Rain = 0
KMC1 241307Z 18001KT 17/16 A3008 RMK A01 T01720160  RH  093%=      5-min Rain = 0
KMC1 241308Z 17003KT 17/16 A3008 RMK A01 T01720160  RH  093%=      5-min Rain = 0
KMC1 241309Z 18002KT 17/16 A3008 RMK A01 T01720160  RH  093%=      5-min Rain = 0
KMC1 241310Z 17004KT 17/16 A3008 RMK A01 T01720161  RH  093%=      5-min Rain = 0
KMC1 241311Z 18004KT 17/16 A3008 RMK A01 T01720161  RH  093%=      5-min Rain = 0
KMC1 241312Z 17002KT 17/16 A3008 RMK A01 T01720160  RH  093%=      5-min Rain = 0
KMC1 241313Z 16003KT 17/16 A3008 RMK A01 T01730161  RH  093%=      5-min Rain = 0
KMC1 241314Z 16004KT 17/16 A3008 RMK A01 T01730161  RH  093%=      5-min Rain = 0
KMC1 241315Z 18004KT 17/16 A3008 RMK A01 T01730161  RH  093%=      5-min Rain = 0
KMC1 241316Z 17003KT 17/16 A3008 RMK A01 T01730160  RH  093%=      5-min Rain = 0
KMC1 241317Z 17003KT 17/16 A3008 RMK A01 T01730161  RH  092%=      5-min Rain = 0
KMC1 241318Z 17003KT 17/16 A3008 RMK A01 T01730161  RH  092%=      5-min Rain = 0
KMC1 241319Z 18004KT 17/16 A3008 RMK A01 T01730161  RH  093%=      5-min Rain = 0
KMC1 241320Z 17004KT 17/16 A3008 RMK A01 T01730161  RH  092%=      5-min Rain = 0
KMC1 241321Z 17004KT 17/16 A3008 RMK A01 T01740161  RH  092%=      5-min Rain = 0
KMC1 241322Z 16003KT 17/16 A3008 RMK A01 T01740161  RH  092%=      5-min Rain = 0
KMC1 241323Z 18004KT 17/16 A3008 RMK A01 T01740161  RH  092%=      5-min Rain = 0
KMC1 241324Z 18005KT 17/16 A3008 RMK A01 T01740161  RH  092%=      5-min Rain = 0
KMC1 241325Z 18004KT 17/16 A3008 RMK A01 T01740161  RH  092%=      5-min Rain = 0
KMC1 241326Z 18004KT 17/16 A3008 RMK A01 T01740161  RH  092%=      5-min Rain = 0
KMC1 241327Z 18003KT 18/16 A3008 RMK A01 T01750162  RH  092%=      5-min Rain = 0
KMC1 241328Z 18003KT 18/16 A3008 RMK A01 T01750161  RH  092%=      5-min Rain = 0
KMC1 241329Z 18002KT 18/16 A3008 RMK A01 T01750161  RH  092%=      5-min Rain = 0
KMC1 241330Z 17004KT 18/16 A3008 RMK A01 T01750162  RH  092%=      5-min Rain = 0
KMC1 241331Z 17003KT 18/16 A3008 RMK A01 T01750162  RH  092%=      5-min Rain = 0
KMC1 241332Z 16003KT 18/16 A3008 RMK A01 T01750162  RH  092%=      5-min Rain = 0
KMC1 241333Z 15003KT 18/16 A3008 RMK A01 T01760162  RH  092%=      5-min Rain = 0
KMC1 241334Z 17004KT 18/16 A3008 RMK A01 T01750162  RH  092%=      5-min Rain = 0
KMC1 241335Z 17003KT 18/16 A3008 RMK A01 T01750162  RH  092%=      5-min Rain = 0
KMC1 241336Z 16003KT 18/16 A3008 RMK A01 T01750162  RH  092%=      5-min Rain = 0
KMC1 241337Z 18004KT 18/16 A3008 RMK A01 T01760162  RH  092%=      5-min Rain = 0
KMC1 241338Z 16005KT 18/16 A3008 RMK A01 T01760162  RH  092%=      5-min Rain = 0
KMC1 241339Z 17006KT 18/16 A3008 RMK A01 T01760161  RH  091%=      5-min Rain = 0
KMC1 241340Z 17004KT 18/16 A3008 RMK A01 T01760161  RH  091%=      5-min Rain = 0
KMC1 241341Z 18004KT 18/16 A3008 RMK A01 T01770161  RH  090%=      5-min Rain = 0
KMC1 241342Z 19006KT 18/16 A3008 RMK A01 T01770161  RH  090%=      5-min Rain = 0
KMC1 241343Z 19005KT 18/16 A3008 RMK A01 T01770160  RH  090%=      5-min Rain = 0
KMC1 241344Z 19005KT 18/16 A3008 RMK A01 T01770161  RH  090%=      5-min Rain = 0
KMC1 241345Z 19004KT 18/16 A3008 RMK A01 T01770160  RH  089%=      5-min Rain = 0
KMC1 241346Z 18004KT 18/16 A3008 RMK A01 T01780160  RH  090%=      5-min Rain = 0
KMC1 241347Z 17006KT 18/16 A3008 RMK A01 T01780160  RH  089%=      5-min Rain = 0
KMC1 241348Z 18005KT 18/16 A3008 RMK A01 T01780160  RH  089%=      5-min Rain = 0
KMC1 241349Z 18005KT 18/16 A3008 RMK A01 T01780161  RH  089%=      5-min Rain = 0
KMC1 241350Z 18007KT 18/16 A3008 RMK A01 T01780161  RH  089%=      5-min Rain = 0
KMC1 241351Z 18007KT 18/16 A3008 RMK A01 T01780160  RH  089%=      5-min Rain = 0
KMC1 241352Z 19006KT 18/16 A3008 RMK A01 T01790160  RH  089%=      5-min Rain = 0
KMC1 241353Z 19007KT 18/16 A3008 RMK A01 T01790160  RH  089%=      5-min Rain = 0
KMC1 241354Z 19007KT 18/16 A3008 RMK A01 T01790160  RH  089%=      5-min Rain = 0
KMC1 241355Z 19007KT 18/16 A3008 RMK A01 T01790159  RH  088%=      5-min Rain = 0
KMC1 241356Z 20004KT 18/16 A3009 RMK A01 T01790159  RH  088%=      5-min Rain = 0
KMC1 241357Z 19006KT 18/16 A3009 RMK A01 T01790160  RH  088%=      5-min Rain = 0
KMC1 241358Z 19006KT 18/16 A3009 RMK A01 T01800160  RH  088%=      5-min Rain = 0
KMC1 241359Z 19005KT 18/16 A3009 RMK A01 T01800160  RH  088%=      5-min Rain = 0
KMC1 241400Z 19005KT 18/16 A3009 RMK A01 T01800160  RH  088%=      5-min Rain = 0
KMC1 241401Z 18005KT 18/16 A3009 RMK A01 T01800161  RH  088%=      5-min Rain = 0
KMC1 241402Z 19004KT 18/16 A3009 RMK A01 T01800161  RH  088%=      5-min Rain = 0
KMC1 241403Z 19004KT 18/16 A3009 RMK A01 T01810160  RH  088%=      5-min Rain = 0
KMC1 241404Z 19003KT 18/16 A3009 RMK A01 T01810161  RH  088%=      5-min Rain = 0
KMC1 241405Z 18005KT 18/16 A3009 RMK A01 T01810162  RH  088%=      5-min Rain = 0
KMC1 241406Z 18005KT 18/16 A3009 RMK A01 T01810161  RH  088%=      5-min Rain = 0
KMC1 241407Z 18008KT 18/16 A3009 RMK A01 T01810161  RH  088%=      5-min Rain = 0
KMC1 241408Z 19007KT 18/16 A3009 RMK A01 T01820161  RH  087%=      5-min Rain = 0
KMC1 241409Z 18008KT 18/16 A3009 RMK A01 T01820161  RH  087%=      5-min Rain = 0
KMC1 241410Z 19006KT 18/16 A3009 RMK A01 T01820161  RH  087%=      5-min Rain = 0
KMC1 241411Z 18006KT 18/16 A3009 RMK A01 T01820161  RH  088%=      5-min Rain = 0
KMC1 241412Z 19005KT 18/16 A3009 RMK A01 T01820161  RH  087%=      5-min Rain = 0
KMC1 241413Z 20007KT 18/16 A3009 RMK A01 T01830162  RH  087%=      5-min Rain = 0
KMC1 241414Z 19005KT 18/16 A3009 RMK A01 T01840162  RH  087%=      5-min Rain = 0
KMC1 241415Z 18005KT 18/16 A3009 RMK A01 T01840162  RH  087%=      5-min Rain = 0
KMC1 241416Z 19005KT 19/16 A3009 RMK A01 T01850162  RH  087%=      5-min Rain = 0
KMC1 241417Z 19004KT 19/16 A3009 RMK A01 T01850162  RH  086%=      5-min Rain = 0
KMC1 241418Z 19005KT 19/16 A3009 RMK A01 T01850161  RH  086%=      5-min Rain = 0
KMC1 241419Z 18004KT 19/16 A3009 RMK A01 T01850161  RH  086%=      5-min Rain = 0
KMC1 241420Z 17005KT 19/16 A3009 RMK A01 T01850161  RH  086%=      5-min Rain = 0
KMC1 241421Z 18004KT 19/16 A3009 RMK A01 T01860162  RH  086%=      5-min Rain = 0
KMC1 241422Z 19005KT 19/16 A3009 RMK A01 T01860162  RH  086%=      5-min Rain = 0
KMC1 241423Z 18004KT 19/16 A301 RMK A01 T01860162  RH  086%=      5-min Rain = 0
KMC1 241424Z 19005KT 19/16 A301 RMK A01 T01870162  RH  085%=      5-min Rain = 0
KMC1 241425Z 17004KT 19/16 A301 RMK A01 T01870162  RH  085%=      5-min Rain = 0
KMC1 241426Z 19003KT 19/16 A301 RMK A01 T01870163  RH  086%=      5-min Rain = 0
KMC1 241427Z 20006KT 19/16 A301 RMK A01 T01880162  RH  085%=      5-min Rain = 0
KMC1 241428Z 20007KT 19/16 A301 RMK A01 T01880161  RH  084%=      5-min Rain = 0
KMC1 241429Z 20009KT 19/16 A301 RMK A01 T01880160  RH  084%=      5-min Rain = 0
KMC1 241430Z 20006KT 19/16 A301 RMK A01 T01880160  RH  084%=      5-min Rain = 0
KMC1 241431Z 19007KT 19/16 A301 RMK A01 T01880161  RH  084%=      5-min Rain = 0
KMC1 241432Z 20007KT 19/16 A301 RMK A01 T01880160  RH  084%=      5-min Rain = 0
KMC1 241433Z 19006KT 19/16 A301 RMK A01 T01880160  RH  084%=      5-min Rain = 0
KMC1 241434Z 20009KT 19/16 A301 RMK A01 T01880160  RH  084%=      5-min Rain = 0
KMC1 241435Z 20007KT 19/16 A301 RMK A01 T01880159  RH  083%=      5-min Rain = 0
KMC1 241436Z 21008KT 19/16 A301 RMK A01 T01880160  RH  084%=      5-min Rain = 0
KMC1 241437Z 18007KT 19/16 A3011 RMK A01 T01880160  RH  084%=      5-min Rain = 0
KMC1 241438Z 19008KT 19/16 A3011 RMK A01 T01880160  RH  084%=      5-min Rain = 0
KMC1 241439Z 19006KT 19/16 A3011 RMK A01 T01880159  RH  084%=      5-min Rain = 0
KMC1 241440Z 20006KT 19/16 A3011 RMK A01 T01880159  RH  083%=      5-min Rain = 0
KMC1 241441Z 19007KT 19/16 A3011 RMK A01 T01880159  RH  083%=      5-min Rain = 0
KMC1 241442Z 21008KT 19/16 A3011 RMK A01 T01880159  RH  083%=      5-min Rain = 0
KMC1 241443Z 21010KT 19/16 A3011 RMK A01 T01880159  RH  083%=      5-min Rain = 0
KMC1 241444Z 21008KT 19/16 A3011 RMK A01 T01880158  RH  083%=      5-min Rain = 0
KMC1 241445Z 21006KT 19/16 A3011 RMK A01 T01880158  RH  083%=      5-min Rain = 0
KMC1 241446Z 21006KT 19/16 A3011 RMK A01 T01880158  RH  083%=      5-min Rain = 0
KMC1 241447Z 21006KT 19/16 A3011 RMK A01 T01890158  RH  082%=      5-min Rain = 0
KMC1 241448Z 19007KT 19/16 A3011 RMK A01 T01890158  RH  082%=      5-min Rain = 0
KMC1 241449Z 19006KT 19/16 A3011 RMK A01 T01890159  RH  083%=      5-min Rain = 0
KMC1 241450Z 19008KT 19/16 A3011 RMK A01 T01890159  RH  083%=      5-min Rain = 0
KMC1 241451Z 18008KT 19/16 A3011 RMK A01 T01890158  RH  082%=      5-min Rain = 0
KMC1 241452Z 19005KT 19/16 A3011 RMK A01 T01890159  RH  082%=      5-min Rain = 0
KMC1 241453Z 20008KT 19/16 A3011 RMK A01 T01890160  RH  083%=      5-min Rain = 0
KMC1 241454Z 19007KT 19/16 A3011 RMK A01 T01890159  RH  082%=      5-min Rain = 0
KMC1 241455Z 21010KT 19/16 A3011 RMK A01 T01890159  RH  082%=      5-min Rain = 0
KMC1 241456Z 19009G14KT 19/16 A3011 RMK A01 T01890158  RH  082%=      5-min Rain = 0
KMC1 241457Z 19009KT 19/16 A3011 RMK A01 T01890158  RH  082%=      5-min Rain = 0
KMC1 241458Z 19007KT 19/16 A3011 RMK A01 T01890159  RH  082%=      5-min Rain = 0
KMC1 241459Z 19008KT 19/16 A3011 RMK A01 T01890159  RH  083%=      5-min Rain = 0
KMC1 241500Z 18008KT 19/16 A3011 RMK A01 T01890159  RH  083%=      5-min Rain = 0
KMC1 241501Z 19006KT 19/16 A3011 RMK A01 T01890160  RH  083%=      5-min Rain = 0
KMC1 241502Z 20005KT 19/16 A3011 RMK A01 T01900160  RH  083%=      5-min Rain = 0
KMC1 241503Z 20010KT 19/16 A3011 RMK A01 T01900159  RH  082%=      5-min Rain = 0
KMC1 241504Z 21008KT 19/16 A3011 RMK A01 T01900159  RH  082%=      5-min Rain = 0
KMC1 241505Z 20007KT 19/16 A3011 RMK A01 T01910159  RH  082%=      5-min Rain = 0
KMC1 241506Z 19008KT 19/16 A3011 RMK A01 T01910159  RH  082%=      5-min Rain = 0
KMC1 241507Z 19007KT 19/16 A3011 RMK A01 T01900159  RH  082%=      5-min Rain = 0
KMC1 241508Z 21008KT 19/16 A3011 RMK A01 T01910158  RH  081%=      5-min Rain = 0
KMC1 241509Z 19006KT 19/16 A3011 RMK A01 T01910158  RH  081%=      5-min Rain = 0
KMC1 241510Z 19005KT 19/16 A3011 RMK A01 T01910159  RH  082%=      5-min Rain = 0
KMC1 241511Z 19008KT 19/16 A3011 RMK A01 T01920159  RH  081%=      5-min Rain = 0
KMC1 241512Z 19008KT 19/16 A3011 RMK A01 T01920157  RH  080%=      5-min Rain = 0
KMC1 241513Z 19009G14KT 19/16 A3011 RMK A01 T01930156  RH  079%=      5-min Rain = 0
KMC1 241514Z 19009KT 19/16 A3011 RMK A01 T01930157  RH  079%=      5-min Rain = 0
KMC1 241515Z 20010G15KT 19/16 A3011 RMK A01 T01940156  RH  079%=      5-min Rain = 0
KMC1 241516Z 21010KT 19/16 A3011 RMK A01 T01940156  RH  078%=      5-min Rain = 0
KMC1 241517Z 19009KT 20/16 A3011 RMK A01 T01950156  RH  078%=      5-min Rain = 0
KMC1 241518Z 18006KT 20/16 A3011 RMK A01 T01950156  RH  078%=      5-min Rain = 0
KMC1 241519Z 18007KT 20/16 A3011 RMK A01 T01970159  RH  079%=      5-min Rain = 0
KMC1 241520Z 19008KT 20/16 A3011 RMK A01 T01990157  RH  077%=      5-min Rain = 0
KMC1 241521Z 19009KT 20/16 A3011 RMK A01 T02000157  RH  076%=      5-min Rain = 0
KMC1 241522Z 18009KT 20/16 A3011 RMK A01 T01990157  RH  077%=      5-min Rain = 0
KMC1 241523Z 19010KT 20/16 A3011 RMK A01 T01990157  RH  077%=      5-min Rain = 0
KMC1 241524Z 20007KT 20/16 A3012 RMK A01 T01980157  RH  077%=      5-min Rain = 0
KMC1 241525Z 20005KT 20/16 A3012 RMK A01 T01990158  RH  077%=      5-min Rain = 0
KMC1 241526Z 20007G13KT 20/16 A3012 RMK A01 T01990159  RH  078%=      5-min Rain = 0
KMC1 241527Z 21010KT 20/16 A3012 RMK A01 T02010159  RH  077%=      5-min Rain = 0
KMC1 241528Z 20006KT 20/16 A3012 RMK A01 T02010158  RH  076%=      5-min Rain = 0
KMC1 241529Z 21007KT 20/16 A3012 RMK A01 T02000158  RH  077%=      5-min Rain = 0
KMC1 241530Z 20009KT 20/16 A3012 RMK A01 T02000158  RH  077%=      5-min Rain = 0
KMC1 241531Z 19009KT 20/16 A3012 RMK A01 T02000158  RH  077%=      5-min Rain = 0
KMC1 241532Z 19011KT 20/16 A3012 RMK A01 T01990157  RH  076%=      5-min Rain = 0
KMC1 241533Z 18009KT 20/16 A3012 RMK A01 T01990156  RH  076%=      5-min Rain = 0
KMC1 241534Z 18007KT 20/16 A3012 RMK A01 T01980158  RH  077%=      5-min Rain = 0
KMC1 241535Z 18009KT 20/16 A3012 RMK A01 T01980158  RH  077%=      5-min Rain = 0
KMC1 241536Z 20007KT 20/16 A3012 RMK A01 T01980157  RH  077%=      5-min Rain = 0
KMC1 241537Z 20006KT 20/16 A3012 RMK A01 T01980157  RH  077%=      5-min Rain = 0
KMC1 241538Z 20006KT 20/16 A3012 RMK A01 T01980158  RH  078%=      5-min Rain = 0
KMC1 241539Z 20010KT 20/16 A3012 RMK A01 T01990157  RH  077%=      5-min Rain = 0
KMC1 241540Z 18010KT 20/16 A3012 RMK A01 T01990157  RH  077%=      5-min Rain = 0
KMC1 241541Z 19009KT 20/16 A3012 RMK A01 T01980157  RH  077%=      5-min Rain = 0
KMC1 241542Z 19006KT 20/16 A3012 RMK A01 T01980158  RH  078%=      5-min Rain = 0
KMC1 241543Z 19007G12KT 20/16 A3012 RMK A01 T01990158  RH  077%=      5-min Rain = 0
KMC1 241544Z 21010KT 20/16 A3012 RMK A01 T01990158  RH  077%=      5-min Rain = 0
KMC1 241545Z 20011KT 20/16 A3012 RMK A01 T01990156  RH  076%=      5-min Rain = 0
KMC1 241546Z 19008KT 20/16 A3012 RMK A01 T01990156  RH  076%=      5-min Rain = 0
KMC1 241547Z 19007KT 20/16 A3012 RMK A01 T01990157  RH  077%=      5-min Rain = 0
KMC1 241548Z 19007KT 20/16 A3012 RMK A01 T01990157  RH  077%=      5-min Rain = 0
KMC1 241549Z 19006KT 20/16 A3012 RMK A01 T02000158  RH  077%=      5-min Rain = 0
KMC1 241550Z 20009KT 20/16 A3012 RMK A01 T02000159  RH  077%=      5-min Rain = 0
KMC1 241551Z 19008KT 20/16 A3012 RMK A01 T02010158  RH  076%=      5-min Rain = 0
KMC1 241552Z 19010KT 20/16 A3012 RMK A01 T02010158  RH  076%=      5-min Rain = 0
KMC1 241553Z 20008KT 20/16 A3012 RMK A01 T02010157  RH  076%=      5-min Rain = 0
KMC1 241554Z 19007G12KT 20/16 A3012 RMK A01 T02010156  RH  076%=      5-min Rain = 0
KMC1 241555Z 19007KT 20/16 A3012 RMK A01 T02010156  RH  076%=      5-min Rain = 0
KMC1 241556Z 21008G13KT 20/16 A3012 RMK A01 T02010157  RH  075%=      5-min Rain = 0
KMC1 241557Z 20008KT 20/16 A3012 RMK A01 T02020157  RH  075%=      5-min Rain = 0
KMC1 241558Z 22006KT 20/16 A3012 RMK A01 T02020156  RH  075%=      5-min Rain = 0
KMC1 241559Z 21009KT 20/16 A3012 RMK A01 T02020157  RH  075%=      5-min Rain = 0
KMC1 241600Z 19011KT 20/15 A3012 RMK A01 T02030154  RH  073%=      5-min Rain = 0
KMC1 241601Z 20011KT 20/15 A3012 RMK A01 T02030154  RH  073%=      5-min Rain = 0
KMC1 241602Z 20011KT 20/15 A3012 RMK A01 T02020153  RH  073%=      5-min Rain = 0
KMC1 241603Z 20009KT 20/15 A3012 RMK A01 T02020152  RH  073%=      5-min Rain = 0
KMC1 241604Z 20010KT 20/15 A3012 RMK A01 T02020152  RH  073%=      5-min Rain = 0
KMC1 241605Z 20010KT 20/15 A3012 RMK A01 T02010152  RH  073%=      5-min Rain = 0
KMC1 241606Z 21011KT 20/15 A3012 RMK A01 T02020153  RH  074%=      5-min Rain = 0
KMC1 241607Z 21010KT 20/15 A3012 RMK A01 T02020153  RH  073%=      5-min Rain = 0
KMC1 241608Z 21009G14KT 20/15 A3012 RMK A01 T02030153  RH  073%=      5-min Rain = 0
KMC1 241609Z 21006KT 20/16 A3012 RMK A01 T02030155  RH  074%=      5-min Rain = 0
KMC1 241610Z 21009KT 20/16 A3012 RMK A01 T02040155  RH  074%=      5-min Rain = 0
KMC1 241611Z 21011KT 20/16 A3012 RMK A01 T02040155  RH  073%=      5-min Rain = 0
KMC1 241612Z 22010KT 20/15 A3012 RMK A01 T02040153  RH  073%=      5-min Rain = 0
KMC1 241613Z 21010KT 20/16 A3012 RMK A01 T02030155  RH  074%=      5-min Rain = 0
KMC1 241614Z 20011KT 20/15 A3012 RMK A01 T02030154  RH  073%=      5-min Rain = 0
KMC1 241615Z 20008KT 20/15 A3012 RMK A01 T02020153  RH  073%=      5-min Rain = 0
KMC1 241616Z 22007KT 20/15 A3012 RMK A01 T02020154  RH  074%=      5-min Rain = 0
KMC1 241617Z 21008KT 20/16 A3012 RMK A01 T02030155  RH  074%=      5-min Rain = 0
KMC1 241618Z 21009KT 20/15 A3012 RMK A01 T02040154  RH  073%=      5-min Rain = 0
KMC1 241619Z 21007KT 20/15 A3012 RMK A01 T02040153  RH  073%=      5-min Rain = 0
KMC1 241620Z 20009KT 21/16 A3012 RMK A01 T02050155  RH  073%=      5-min Rain = 0
KMC1 241621Z 20010KT 21/15 A3012 RMK A01 T02050153  RH  072%=      5-min Rain = 0
KMC1 241622Z 21006KT 21/15 A3012 RMK A01 T02050153  RH  072%=      5-min Rain = 0
KMC1 241623Z 19006KT 21/16 A3012 RMK A01 T02050155  RH  073%=      5-min Rain = 0
KMC1 241624Z 21008KT 21/16 A3012 RMK A01 T02060155  RH  072%=      5-min Rain = 0
KMC1 241625Z 22010KT 21/16 A3012 RMK A01 T02070155  RH  072%=      5-min Rain = 0
KMC1 241626Z 22007KT 21/16 A3012 RMK A01 T02070156  RH  073%=      5-min Rain = 0
KMC1 241627Z 21004KT 21/16 A3012 RMK A01 T02080158  RH  073%=      5-min Rain = 0
KMC1 241628Z 20005KT 21/16 A3012 RMK A01 T02090160  RH  074%=      5-min Rain = 0
KMC1 241629Z 20007KT 21/16 A3012 RMK A01 T02100158  RH  072%=      5-min Rain = 0
KMC1 241630Z 22009KT 21/16 A3012 RMK A01 T02100156  RH  071%=      5-min Rain = 0
KMC1 241631Z 21008KT 21/16 A3012 RMK A01 T02100157  RH  072%=      5-min Rain = 0
KMC1 241632Z 21009KT 21/16 A3012 RMK A01 T02100156  RH  071%=      5-min Rain = 0
KMC1 241633Z 21009KT 21/16 A3012 RMK A01 T02090155  RH  071%=      5-min Rain = 0
KMC1 241634Z 21007KT 21/16 A3012 RMK A01 T02080155  RH  071%=      5-min Rain = 0
KMC1 241635Z 21007KT 21/16 A3012 RMK A01 T02090156  RH  072%=      5-min Rain = 0
KMC1 241636Z 20007KT 21/16 A3012 RMK A01 T02090156  RH  072%=      5-min Rain = 0
KMC1 241637Z 21006KT 21/16 A3012 RMK A01 T02090157  RH  072%=      5-min Rain = 0
KMC1 241638Z 22007KT 21/16 A3012 RMK A01 T02100156  RH  071%=      5-min Rain = 0
KMC1 241639Z 24009KT 21/16 A3012 RMK A01 T02110156  RH  071%=      5-min Rain = 0
KMC1 241640Z 22008KT 21/16 A3012 RMK A01 T02110157  RH  071%=      5-min Rain = 0
KMC1 241641Z 21008KT 21/16 A3012 RMK A01 T02110155  RH  070%=      5-min Rain = 0
KMC1 241642Z 20008KT 21/16 A3012 RMK A01 T02100156  RH  071%=      5-min Rain = 0
KMC1 241643Z 20008KT 21/16 A3012 RMK A01 T02090155  RH  071%=      5-min Rain = 0
KMC1 241644Z 22008KT 21/16 A3012 RMK A01 T02090156  RH  072%=      5-min Rain = 0
KMC1 241645Z 19007KT 21/16 A3012 RMK A01 T02100155  RH  071%=      5-min Rain = 0
KMC1 241646Z 21008KT 21/16 A3012 RMK A01 T02110156  RH  071%=      5-min Rain = 0
KMC1 241647Z 21009KT 21/16 A3012 RMK A01 T02120156  RH  070%=      5-min Rain = 0
KMC1 241648Z 21007KT 21/16 A3012 RMK A01 T02120155  RH  070%=      5-min Rain = 0
KMC1 241649Z 21005KT 21/16 A3012 RMK A01 T02110157  RH  071%=      5-min Rain = 0
KMC1 241650Z 19006KT 21/16 A3012 RMK A01 T02120159  RH  072%=      5-min Rain = 0
KMC1 241651Z 19005KT 21/16 A3012 RMK A01 T02120156  RH  070%=      5-min Rain = 0
KMC1 241652Z 19005KT 21/16 A3012 RMK A01 T02130158  RH  071%=      5-min Rain = 0
KMC1 241653Z 23006G11KT 21/16 A3012 RMK A01 T02140158  RH  070%=      5-min Rain = 0
KMC1 241654Z 22008G13KT 22/16 A3012 RMK A01 T02150157  RH  069%=      5-min Rain = 0
KMC1 241655Z 22008KT 21/16 A3012 RMK A01 T02140156  RH  069%=      5-min Rain = 0
KMC1 241656Z 23008KT 21/16 A3012 RMK A01 T02140157  RH  070%=      5-min Rain = 0
KMC1 241657Z 23007KT 21/16 A3012 RMK A01 T02130156  RH  070%=      5-min Rain = 0
KMC1 241658Z 20006KT 21/16 A3012 RMK A01 T02130156  RH  070%=      5-min Rain = 0
KMC1 241659Z 19006KT 21/16 A3012 RMK A01 T02130158  RH  071%=      5-min Rain = 0
KMC1 241700Z 19009KT 21/16 A3012 RMK A01 T02140160  RH  071%=      5-min Rain = 0
KMC1 241701Z 20008KT 22/16 A3011 RMK A01 T02160159  RH  070%=      5-min Rain = 0
KMC1 241702Z 19008KT 22/16 A3011 RMK A01 T02160158  RH  069%=      5-min Rain = 0
KMC1 241703Z 20008KT 22/16 A3011 RMK A01 T02170162  RH  071%=      5-min Rain = 0
KMC1 241704Z 20011KT 22/16 A3011 RMK A01 T02200159  RH  069%=      5-min Rain = 0
KMC1 241705Z 19009KT 22/16 A3011 RMK A01 T02210157  RH  067%=      5-min Rain = 0
KMC1 241706Z 18008KT 22/16 A3011 RMK A01 T02210155  RH  066%=      5-min Rain = 0
KMC1 241707Z 20008KT 22/15 A3011 RMK A01 T02200154  RH  066%=      5-min Rain = 0
KMC1 241708Z 19007KT 22/16 A3011 RMK A01 T02200157  RH  067%=      5-min Rain = 0
KMC1 241709Z 19007KT 22/16 A3011 RMK A01 T02230159  RH  067%=      5-min Rain = 0
KMC1 241710Z 20010KT 23/15 A3011 RMK A01 T02250154  RH  064%=      5-min Rain = 0
KMC1 241711Z 20011KT 22/15 A3011 RMK A01 T02240153  RH  064%=      5-min Rain = 0
KMC1 241712Z 20010KT 22/15 A3011 RMK A01 T02240153  RH  064%=      5-min Rain = 0
KMC1 241713Z 19009KT 22/15 A3011 RMK A01 T02240154  RH  064%=      5-min Rain = 0
KMC1 241714Z 21008G13KT 22/16 A3011 RMK A01 T02240155  RH  065%=      5-min Rain = 0
KMC1 241715Z 22009KT 23/16 A3011 RMK A01 T02250155  RH  065%=      5-min Rain = 0
KMC1 241716Z 21011KT 23/16 A3011 RMK A01 T02260156  RH  065%=      5-min Rain = 0
KMC1 241717Z 21009KT 23/15 A3011 RMK A01 T02250154  RH  064%=      5-min Rain = 0
KMC1 241718Z 21009G14KT 22/15 A3011 RMK A01 T02230154  RH  065%=      5-min Rain = 0
KMC1 241719Z 21010KT 22/15 A3011 RMK A01 T02230154  RH  065%=      5-min Rain = 0
KMC1 241720Z 21010KT 22/15 A3011 RMK A01 T02220154  RH  065%=      5-min Rain = 0
KMC1 241721Z 21006KT 22/15 A3011 RMK A01 T02200154  RH  066%=      5-min Rain = 0
KMC1 241722Z 20009KT 22/16 A3011 RMK A01 T02200156  RH  067%=      5-min Rain = 0
KMC1 241723Z 20010KT 22/16 A3011 RMK A01 T02220157  RH  067%=      5-min Rain = 0
KMC1 241724Z 22009KT 22/16 A3011 RMK A01 T02230157  RH  066%=      5-min Rain = 0
KMC1 241725Z 22007G12KT 22/16 A3011 RMK A01 T02230157  RH  066%=      5-min Rain = 0
KMC1 241726Z 22007KT 22/16 A3011 RMK A01 T02230158  RH  066%=      5-min Rain = 0
KMC1 241727Z 23007KT 22/16 A3011 RMK A01 T02230156  RH  066%=      5-min Rain = 0
KMC1 241728Z 23009G14KT 22/16 A3011 RMK A01 T02230157  RH  066%=      5-min Rain = 0
KMC1 241729Z 21009KT 22/16 A3011 RMK A01 T02220156  RH  066%=      5-min Rain = 0
KMC1 241730Z 22008KT 22/16 A3011 RMK A01 T02210155  RH  066%=      5-min Rain = 0
KMC1 241731Z 23010G15KT 22/16 A3011 RMK A01 T02200156  RH  067%=      5-min Rain = 0
KMC1 241732Z 22010KT 22/16 A3011 RMK A01 T02200155  RH  066%=      5-min Rain = 0
KMC1 241733Z 22009KT 22/16 A3011 RMK A01 T02210155  RH  066%=      5-min Rain = 0
KMC1 241734Z 22009KT 22/16 A3011 RMK A01 T02240159  RH  066%=      5-min Rain = 0
KMC1 241735Z 22008KT 23/16 A3011 RMK A01 T02280158  RH  065%=      5-min Rain = 0
KMC1 241736Z 22008KT 23/16 A3011 RMK A01 T02290156  RH  063%=      5-min Rain = 0
KMC1 241737Z 23004KT 23/16 A3011 RMK A01 T02290160  RH  065%=      5-min Rain = 0
KMC1 241738Z 19009G14KT 23/16 A3011 RMK A01 T02320160  RH  064%=      5-min Rain = 0
KMC1 241739Z 19010KT 23/15 A3011 RMK A01 T02330154  RH  061%=      5-min Rain = 0
KMC1 241740Z 18012KT 23/16 A3011 RMK A01 T02310156  RH  062%=      5-min Rain = 0
KMC1 241741Z 18011KT 23/16 A3011 RMK A01 T02310156  RH  062%=      5-min Rain = 0
KMC1 241742Z 18010KT 23/16 A3011 RMK A01 T02300156  RH  063%=      5-min Rain = 0
KMC1 241743Z 19011KT 23/16 A3011 RMK A01 T02300157  RH  063%=      5-min Rain = 0
KMC1 241744Z 19010KT 23/16 A3011 RMK A01 T02300157  RH  063%=      5-min Rain = 0
KMC1 241745Z 21010KT 23/16 A3011 RMK A01 T02300156  RH  063%=      5-min Rain = 0
KMC1 241746Z 19007KT 23/16 A3011 RMK A01 T02290158  RH  064%=      5-min Rain = 0
KMC1 241747Z 22008KT 23/16 A301 RMK A01 T02310161  RH  065%=      5-min Rain = 0
KMC1 241748Z 20009KT 24/16 A3011 RMK A01 T02350160  RH  063%=      5-min Rain = 0
KMC1 241749Z 20006KT 24/16 A301 RMK A01 T02350158  RH  062%=      5-min Rain = 0
KMC1 241750Z 20009KT 23/16 A301 RMK A01 T02320157  RH  062%=      5-min Rain = 0
KMC1 241751Z 19012KT 23/16 A301 RMK A01 T02310157  RH  063%=      5-min Rain = 0
KMC1 241752Z 19006KT 23/16 A301 RMK A01 T02300158  RH  064%=      5-min Rain = 0
KMC1 241753Z 20006KT 23/16 A301 RMK A01 T02310158  RH  064%=      5-min Rain = 0
KMC1 241754Z 20007KT 23/16 A301 RMK A01 T02310157  RH  063%=      5-min Rain = 0
KMC1 241755Z 23008KT 23/16 A301 RMK A01 T02300157  RH  063%=      5-min Rain = 0
KMC1 241756Z 24007KT 23/16 A301 RMK A01 T02290159  RH  064%=      5-min Rain = 0
KMC1 241757Z 24009KT 23/16 A301 RMK A01 T02290159  RH  065%=      5-min Rain = 0
KMC1 241758Z 24008KT 23/16 A301 RMK A01 T02300159  RH  064%=      5-min Rain = 0
KMC1 241759Z 24010KT 23/16 A301 RMK A01 T02300158  RH  064%=      5-min Rain = 0
KMC1 241800Z 22009KT 23/16 A301 RMK A01 T02310160  RH  064%=      5-min Rain = 0
KMC1 241801Z 24009KT 23/16 A301 RMK A01 T02300159  RH  064%=      5-min Rain = 0
KMC1 241802Z 24011KT 23/16 A301 RMK A01 T02300159  RH  064%=      5-min Rain = 0
KMC1 241803Z 23010KT 23/16 A301 RMK A01 T02280158  RH  064%=      5-min Rain = 0
KMC1 241804Z 23011KT 23/16 A301 RMK A01 T02280159  RH  065%=      5-min Rain = 0
KMC1 241805Z 22008KT 23/16 A301 RMK A01 T02300161  RH  065%=      5-min Rain = 0
KMC1 241806Z 21008KT 23/16 A301 RMK A01 T02320159  RH  063%=      5-min Rain = 0
KMC1 241807Z 21009KT 23/16 A301 RMK A01 T02330161  RH  064%=      5-min Rain = 0
KMC1 241808Z 22009KT 24/16 A301 RMK A01 T02350160  RH  063%=      5-min Rain = 0
KMC1 241809Z 23010KT 24/16 A301 RMK A01 T02350160  RH  063%=      5-min Rain = 0
KMC1 241810Z 20007KT 24/16 A301 RMK A01 T02350161  RH  063%=      5-min Rain = 0
KMC1 241811Z 21010KT 24/16 A301 RMK A01 T02370160  RH  062%=      5-min Rain = 0
KMC1 241812Z 22007KT 24/16 A301 RMK A01 T02380160  RH  061%=      5-min Rain = 0
KMC1 241813Z 23010KT 24/16 A301 RMK A01 T02400159  RH  061%=      5-min Rain = 0
KMC1 241814Z 23005G10KT 24/16 A3009 RMK A01 T02390159  RH  061%=      5-min Rain = 0
KMC1 241815Z 22008KT 24/16 A301 RMK A01 T02410164  RH  062%=      5-min Rain = 0
KMC1 241816Z 23009KT 24/16 A3009 RMK A01 T02430160  RH  060%=      5-min Rain = 0
KMC1 241817Z 21008KT 24/16 A3009 RMK A01 T02420161  RH  060%=      5-min Rain = 0
KMC1 241818Z 22008KT 24/16 A3009 RMK A01 T02410163  RH  061%=      5-min Rain = 0
KMC1 241819Z 23007KT 24/16 A3009 RMK A01 T02440164  RH  061%=      5-min Rain = 0
KMC1 241820Z 23008KT 24/16 A3009 RMK A01 T02440160  RH  059%=      5-min Rain = 0
KMC1 241821Z 24009KT 24/16 A3009 RMK A01 T02420160  RH  060%=      5-min Rain = 0
KMC1 241822Z 24009KT 24/16 A3009 RMK A01 T02410161  RH  061%=      5-min Rain = 0
KMC1 241823Z 23011KT 24/16 A3009 RMK A01 T02410161  RH  061%=      5-min Rain = 0
KMC1 241824Z 22012KT 24/16 A3009 RMK A01 T02400159  RH  060%=      5-min Rain = 0
KMC1 241825Z 20010KT 24/16 A3009 RMK A01 T02380160  RH  062%=      5-min Rain = 0
KMC1 241826Z 18011KT 24/16 A3009 RMK A01 T02400160  RH  061%=      5-min Rain = 0
KMC1 241827Z 18010KT 24/16 A3009 RMK A01 T02420162  RH  061%=      5-min Rain = 0
KMC1 241828Z 18010KT 24/16 A3009 RMK A01 T02440160  RH  059%=      5-min Rain = 0
KMC1 241829Z 19008KT 24/16 A3009 RMK A01 T02440159  RH  059%=      5-min Rain = 0
KMC1 241830Z 19010G15KT 24/16 A3009 RMK A01 T02420160  RH  060%=      5-min Rain = 0
KMC1 241831Z 21011KT 24/16 A3009 RMK A01 T02430157  RH  059%=      5-min Rain = 0
KMC1 241832Z 20011KT 24/16 A3009 RMK A01 T02430158  RH  059%=      5-min Rain = 0
KMC1 241833Z 21010KT 24/16 A3009 RMK A01 T02440160  RH  059%=      5-min Rain = 0
KMC1 241834Z 21009KT 25/16 A3009 RMK A01 T02460159  RH  058%=      5-min Rain = 0
KMC1 241835Z 22010KT 25/16 A3009 RMK A01 T02460158  RH  058%=      5-min Rain = 0
KMC1 241836Z 20007KT 24/16 A3009 RMK A01 T02430157  RH  059%=      5-min Rain = 0
KMC1 241837Z 19007KT 24/16 A3009 RMK A01 T02430162  RH  060%=      5-min Rain = 0
KMC1 241838Z 19009KT 25/16 A3009 RMK A01 T02460162  RH  059%=      5-min Rain = 0
KMC1 241839Z 24009G15KT 25/16 A3009 RMK A01 T02490163  RH  059%=      5-min Rain = 0
KMC1 241840Z 24011KT 25/16 A3009 RMK A01 T02490161  RH  058%=      5-min Rain = 0
KMC1 241841Z 23009KT 25/16 A3008 RMK A01 T02470158  RH  058%=      5-min Rain = 0
KMC1 241842Z 22007KT 25/16 A3008 RMK A01 T02460158  RH  058%=      5-min Rain = 0
KMC1 241843Z 21009KT 25/16 A3008 RMK A01 T02460161  RH  059%=      5-min Rain = 0
KMC1 241844Z 20008KT 25/16 A3009 RMK A01 T02480159  RH  058%=      5-min Rain = 0
KMC1 241845Z 21009KT 25/16 A3008 RMK A01 T02480160  RH  058%=      5-min Rain = 0
KMC1 241846Z 20008KT 25/16 A3008 RMK A01 T02470160  RH  058%=      5-min Rain = 0
KMC1 241847Z 23008KT 25/16 A3008 RMK A01 T02460161  RH  059%=      5-min Rain = 0
KMC1 241848Z 22010G15KT 25/16 A3008 RMK A01 T02480161  RH  059%=      5-min Rain = 0
KMC1 241849Z 22012KT 25/16 A3008 RMK A01 T02490160  RH  058%=      5-min Rain = 0
KMC1 241850Z 22013KT 25/16 A3008 RMK A01 T02490160  RH  058%=      5-min Rain = 0
KMC1 241851Z 22009KT 25/16 A3008 RMK A01 T02470160  RH  058%=      5-min Rain = 0
KMC1 241852Z 23009KT 25/16 A3008 RMK A01 T02470160  RH  058%=      5-min Rain = 0
KMC1 241853Z 22008KT 25/16 A3008 RMK A01 T02480159  RH  058%=      5-min Rain = 0
KMC1 241854Z 25008KT 25/16 A3008 RMK A01 T02480161  RH  059%=      5-min Rain = 0
KMC1 241855Z 24012KT 25/16 A3008 RMK A01 T02490157  RH  057%=      5-min Rain = 0
KMC1 241856Z 24010KT 25/16 A3008 RMK A01 T02470157  RH  057%=      5-min Rain = 0
KMC1 241857Z 23010KT 24/16 A3008 RMK A01 T02440157  RH  058%=      5-min Rain = 0
KMC1 241858Z 22010KT 24/16 A3008 RMK A01 T02440161  RH  060%=      5-min Rain = 0
KMC1 241859Z 23009KT 25/16 A3008 RMK A01 T02470159  RH  058%=      5-min Rain = 0
KMC1 241900Z 24008KT 25/16 A3008 RMK A01 T02480159  RH  058%=      5-min Rain = 0
KMC1 241901Z 25009KT 25/16 A3008 RMK A01 T02490161  RH  058%=      5-min Rain = 0
KMC1 241902Z 23006KT 25/16 A3008 RMK A01 T02510164  RH  058%=      5-min Rain = 0
KMC1 241903Z 20008KT 25/16 A3008 RMK A01 T02530161  RH  057%=      5-min Rain = 0
KMC1 241904Z 18008KT 25/16 A3008 RMK A01 T02530162  RH  057%=      5-min Rain = 0
KMC1 241905Z 20012G17KT 25/16 A3008 RMK A01 T02540162  RH  057%=      5-min Rain = 0
KMC1 241906Z 21012KT 25/16 A3008 RMK A01 T02540160  RH  056%=      5-min Rain = 0
KMC1 241907Z 22008KT 25/16 A3008 RMK A01 T02520160  RH  057%=      5-min Rain = 0
KMC1 241908Z 23008KT 25/16 A3008 RMK A01 T02510159  RH  057%=      5-min Rain = 0
KMC1 241909Z 18008KT 25/16 A3008 RMK A01 T02510162  RH  058%=      5-min Rain = 0
KMC1 241910Z 20007KT 25/16 A3008 RMK A01 T02520161  RH  057%=      5-min Rain = 0
KMC1 241911Z 22009KT 25/16 A3007 RMK A01 T02540161  RH  056%=      5-min Rain = 0
KMC1 241912Z 22010KT 26/16 A3008 RMK A01 T02550159  RH  056%=      5-min Rain = 0
KMC1 241913Z 22008KT 25/16 A3008 RMK A01 T02530159  RH  056%=      5-min Rain = 0
KMC1 241914Z 21009KT 25/16 A3008 RMK A01 T02520159  RH  056%=      5-min Rain = 0
KMC1 241915Z 22008G13KT 25/16 A3008 RMK A01 T02510159  RH  057%=      5-min Rain = 0
KMC1 241916Z 20009KT 25/16 A3007 RMK A01 T02510159  RH  056%=      5-min Rain = 0
KMC1 241917Z 19012KT 25/15 A3007 RMK A01 T02510154  RH  055%=      5-min Rain = 0
KMC1 241918Z 18010KT 25/16 A3007 RMK A01 T02490157  RH  057%=      5-min Rain = 0
KMC1 241919Z 21011KT 25/16 A3007 RMK A01 T02510158  RH  056%=      5-min Rain = 0
KMC1 241920Z 23011KT 25/16 A3007 RMK A01 T02500158  RH  057%=      5-min Rain = 0
KMC1 241921Z 23010KT 25/16 A3007 RMK A01 T02490160  RH  058%=      5-min Rain = 0
KMC1 241922Z 22008KT 25/16 A3007 RMK A01 T02510162  RH  058%=      5-min Rain = 0
KMC1 241923Z 22009KT 25/16 A3007 RMK A01 T02530160  RH  056%=      5-min Rain = 0
KMC1 241924Z 21006G11KT 25/16 A3007 RMK A01 T02520160  RH  056%=      5-min Rain = 0
KMC1 241925Z 20009KT 25/16 A3007 RMK A01 T02520159  RH  056%=      5-min Rain = 0
KMC1 241926Z 20012KT 25/16 A3007 RMK A01 T02530156  RH  055%=      5-min Rain = 0
KMC1 241927Z 20009KT 25/16 A3007 RMK A01 T02520159  RH  056%=      5-min Rain = 0
KMC1 241928Z 20011G16KT 25/16 A3007 RMK A01 T02540161  RH  056%=      5-min Rain = 0
KMC1 241929Z 21013G18KT 26/16 A3007 RMK A01 T02550157  RH  055%=      5-min Rain = 0
KMC1 241930Z 21011G16KT 25/16 A3007 RMK A01 T02530157  RH  055%=      5-min Rain = 0
KMC1 241931Z 22009KT 25/16 A3007 RMK A01 T02520157  RH  056%=      5-min Rain = 0
KMC1 241932Z 22009KT 25/16 A3007 RMK A01 T02520158  RH  056%=      5-min Rain = 0
KMC1 241933Z 21009KT 25/16 A3007 RMK A01 T02520157  RH  055%=      5-min Rain = 0
KMC1 241934Z 20011KT 25/15 A3007 RMK A01 T02510154  RH  055%=      5-min Rain = 0
KMC1 241935Z 22010KT 25/15 A3006 RMK A01 T02510153  RH  055%=      5-min Rain = 0
KMC1 241936Z 22008KT 25/16 A3006 RMK A01 T02520156  RH  055%=      5-min Rain = 0
KMC1 241937Z 21008KT 25/16 A3006 RMK A01 T02530155  RH  055%=      5-min Rain = 0
KMC1 241938Z 21007KT 25/16 A3006 RMK A01 T02530157  RH  055%=      5-min Rain = 0
KMC1 241939Z 22006KT 26/16 A3006 RMK A01 T02550156  RH  054%=      5-min Rain = 0
KMC1 241940Z 21008KT 26/16 A3006 RMK A01 T02560157  RH  054%=      5-min Rain = 0
KMC1 241941Z 21010KT 26/16 A3006 RMK A01 T02580157  RH  054%=      5-min Rain = 0
KMC1 241942Z 21009KT 26/16 A3006 RMK A01 T02580156  RH  053%=      5-min Rain = 0
KMC1 241943Z 20008KT 26/16 A3006 RMK A01 T02570155  RH  054%=      5-min Rain = 0
KMC1 241944Z 23009G14KT 26/16 A3006 RMK A01 T02560156  RH  054%=      5-min Rain = 0
KMC1 241945Z 23012KT 26/15 A3006 RMK A01 T02570150  RH  052%=      5-min Rain = 0
KMC1 241946Z 24010KT 26/15 A3006 RMK A01 T02570146  RH  050%=      5-min Rain = 0
KMC1 241947Z 25011KT 26/15 A3006 RMK A01 T02560151  RH  052%=      5-min Rain = 0
KMC1 241948Z 25007KT 26/15 A3006 RMK A01 T02560153  RH  053%=      5-min Rain = 0
KMC1 241949Z 20010KT 26/16 A3006 RMK A01 T02580156  RH  053%=      5-min Rain = 0
KMC1 241950Z 20007KT 26/16 A3006 RMK A01 T02590158  RH  054%=      5-min Rain = 0
KMC1 241951Z 21007KT 26/16 A3006 RMK A01 T02590160  RH  054%=      5-min Rain = 0
KMC1 241952Z 20008KT 26/16 A3006 RMK A01 T02600159  RH  054%=      5-min Rain = 0
KMC1 241953Z 21006KT 26/16 A3005 RMK A01 T02590158  RH  054%=      5-min Rain = 0
KMC1 241954Z 20005KT 26/16 A3005 RMK A01 T02590158  RH  053%=      5-min Rain = 0
KMC1 241955Z 22006KT 26/16 A3005 RMK A01 T02600157  RH  053%=      5-min Rain = 0
KMC1 241956Z 24009KT 26/15 A3005 RMK A01 T02610154  RH  052%=      5-min Rain = 0
KMC1 241957Z 22011KT 26/15 A3005 RMK A01 T02620152  RH  051%=      5-min Rain = 0
KMC1 241958Z 23009KT 26/15 A3005 RMK A01 T02610152  RH  051%=      5-min Rain = 0
KMC1 241959Z 24007KT 26/15 A3005 RMK A01 T02610149  RH  050%=      5-min Rain = 0
KMC1 242000Z 25008KT 26/16 A3005 RMK A01 T02600156  RH  053%=      5-min Rain = 0
KMC1 242001Z 21010KT 26/16 A3005 RMK A01 T02630157  RH  052%=      5-min Rain = 0
KMC1 242002Z 21008KT 26/15 A3005 RMK A01 T02640153  RH  050%=      5-min Rain = 0
KMC1 242003Z 17007KT 26/15 A3005 RMK A01 T02610151  RH  051%=      5-min Rain = 0
KMC1 242004Z 18006KT 26/16 A3005 RMK A01 T02600157  RH  053%=      5-min Rain = 0
KMC1 242005Z 18005KT 26/16 A3005 RMK A01 T02630160  RH  053%=      5-min Rain = 0
KMC1 242006Z 19007G14KT 27/16 A3005 RMK A01 T02670158  RH  051%=      5-min Rain = 0
KMC1 242007Z 20008G13KT 27/16 A3005 RMK A01 T02680158  RH  051%=      5-min Rain = 0
KMC1 242008Z 20008KT 27/16 A3005 RMK A01 T02680155  RH  050%=      5-min Rain = 0
KMC1 242009Z 19010KT 27/15 A3005 RMK A01 T02660153  RH  050%=      5-min Rain = 0
KMC1 242010Z 20011KT 27/15 A3005 RMK A01 T02650152  RH  050%=      5-min Rain = 0
KMC1 242011Z 20008KT 26/15 A3005 RMK A01 T02630151  RH  050%=      5-min Rain = 0
KMC1 242012Z 22007KT 26/15 A3005 RMK A01 T02630151  RH  050%=      5-min Rain = 0
KMC1 242013Z 22008KT 26/15 A3005 RMK A01 T02640154  RH  051%=      5-min Rain = 0
KMC1 242014Z 22007KT 26/16 A3005 RMK A01 T02640156  RH  051%=      5-min Rain = 0
KMC1 242015Z 20008KT 27/15 A3005 RMK A01 T02650154  RH  050%=      5-min Rain = 0
KMC1 242016Z 18008KT 26/15 A3005 RMK A01 T02640153  RH  050%=      5-min Rain = 0
KMC1 242017Z 19012KT 26/15 A3005 RMK A01 T02630153  RH  051%=      5-min Rain = 0
KMC1 242018Z 19009KT 26/15 A3005 RMK A01 T02630152  RH  050%=      5-min Rain = 0
KMC1 242019Z 21008KT 26/15 A3005 RMK A01 T02630153  RH  051%=      5-min Rain = 0
KMC1 242020Z 19009KT 26/15 A3005 RMK A01 T02640151  RH  050%=      5-min Rain = 0
KMC1 242021Z 20010KT 27/15 A3005 RMK A01 T02660153  RH  050%=      5-min Rain = 0
KMC1 242022Z 20008KT 27/15 A3004 RMK A01 T02670150  RH  049%=      5-min Rain = 0
KMC1 242023Z 21008KT 27/14 A3004 RMK A01 T02660141  RH  046%=      5-min Rain = 0
KMC1 242024Z 21009KT 27/15 A3004 RMK A01 T02650149  RH  049%=      5-min Rain = 0
KMC1 242025Z 20008KT 26/15 A3004 RMK A01 T02640151  RH  050%=      5-min Rain = 0
KMC1 242026Z 20007KT 26/15 A3004 RMK A01 T02630153  RH  051%=      5-min Rain = 0
KMC1 242027Z 21006KT 26/15 A3004 RMK A01 T02640153  RH  050%=      5-min Rain = 0
KMC1 242028Z 20010KT 27/16 A3004 RMK A01 T02660155  RH  051%=      5-min Rain = 0
KMC1 242029Z 22008KT 27/15 A3004 RMK A01 T02660154  RH  050%=      5-min Rain = 0
KMC1 242030Z 20006KT 27/16 A3004 RMK A01 T02670156  RH  050%=      5-min Rain = 0
KMC1 242031Z 21008KT 27/15 A3004 RMK A01 T02680153  RH  049%=      5-min Rain = 0
KMC1 242032Z 21009KT 27/15 A3004 RMK A01 T02670154  RH  050%=      5-min Rain = 0
KMC1 242033Z 20005KT 27/15 A3004 RMK A01 T02680154  RH  050%=      5-min Rain = 0
KMC1 242034Z 20007KT 27/15 A3004 RMK A01 T02680148  RH  048%=      5-min Rain = 0
KMC1 242035Z 20007KT 27/14 A3004 RMK A01 T02700142  RH  045%=      5-min Rain = 0
KMC1 242036Z 20006KT 27/14 A3004 RMK A01 T02690141  RH  045%=      5-min Rain = 0
KMC1 242037Z 21004G11KT 27/14 A3004 RMK A01 T02700143  RH  046%=      5-min Rain = 0
KMC1 242038Z 23010KT 27/14 A3004 RMK A01 T02730143  RH  045%=      5-min Rain = 0
KMC1 242039Z 22008KT 28/13 A3004 RMK A01 T02750130  RH  041%=      5-min Rain = 0
KMC1 242040Z 24006KT 28/13 A3004 RMK A01 T02750133  RH  042%=      5-min Rain = 0
KMC1 242041Z 24009KT 28/13 A3004 RMK A01 T02750133  RH  042%=      5-min Rain = 0
KMC1 242042Z 23007KT 28/13 A3004 RMK A01 T02760128  RH  040%=      5-min Rain = 0
KMC1 242043Z 24008KT 27/13 A3004 RMK A01 T02740127  RH  040%=      5-min Rain = 0
KMC1 242044Z 24010KT 27/14 A3004 RMK A01 T02730136  RH  043%=      5-min Rain = 0
KMC1 242045Z 25007KT 27/14 A3004 RMK A01 T02720135  RH  043%=      5-min Rain = 0
KMC1 242046Z 24005KT 27/14 A3004 RMK A01 T02700140  RH  045%=      5-min Rain = 0
KMC1 242047Z 22006KT 27/14 A3004 RMK A01 T02700137  RH  044%=      5-min Rain = 0
KMC1 242048Z 26007KT 27/13 A3004 RMK A01 T02720133  RH  042%=      5-min Rain = 0
KMC1 242049Z 26010KT 27/13 A3004 RMK A01 T02740129  RH  041%=      5-min Rain = 0
KMC1 242050Z 26008KT 28/12 A3004 RMK A01 T02750124  RH  039%=      5-min Rain = 0
KMC1 242051Z 27006KT 28/13 A3004 RMK A01 T02760127  RH  040%=      5-min Rain = 0
KMC1 242052Z 26005KT 28/13 A3004 RMK A01 T02760125  RH  039%=      5-min Rain = 0
KMC1 242053Z 25006KT 28/13 A3003 RMK A01 T02760128  RH  040%=      5-min Rain = 0
KMC1 242054Z 25007KT 27/13 A3003 RMK A01 T02740127  RH  040%=      5-min Rain = 0
KMC1 242055Z 22006KT 27/13 A3003 RMK A01 T02710131  RH  042%=      5-min Rain = 0
KMC1 242056Z 23009KT 27/13 A3003 RMK A01 T02710126  RH  041%=      5-min Rain = 0
KMC1 242057Z 22009KT 27/13 A3003 RMK A01 T02720126  RH  041%=      5-min Rain = 0
KMC1 242058Z 25007KT 27/13 A3003 RMK A01 T02720126  RH  040%=      5-min Rain = 0
KMC1 242059Z 25007KT 27/12 A3003 RMK A01 T02730122  RH  039%=      5-min Rain = 0
KMC1 242100Z 25006KT 27/13 A3003 RMK A01 T02730131  RH  041%=      5-min Rain = 0
KMC1 242101Z 28006KT 27/13 A3003 RMK A01 T02740129  RH  041%=      5-min Rain = 0
KMC1 242102Z 28005KT 28/13 A3003 RMK A01 T02750130  RH  041%=      5-min Rain = 0
KMC1 242103Z 27006KT 28/13 A3003 RMK A01 T02750134  RH  042%=      5-min Rain = 0
KMC1 242104Z 27006KT 28/14 A3003 RMK A01 T02760136  RH  042%=      5-min Rain = 0
KMC1 242105Z 25008KT 28/14 A3003 RMK A01 T02770137  RH  042%=      5-min Rain = 0
KMC1 242106Z 25007KT 28/13 A3003 RMK A01 T02780134  RH  041%=      5-min Rain = 0
KMC1 242107Z 24007KT 28/14 A3003 RMK A01 T02780135  RH  041%=      5-min Rain = 0
KMC1 242108Z 23008KT 28/13 A3003 RMK A01 T02790131  RH  040%=      5-min Rain = 0
KMC1 242109Z 24007G12KT 28/13 A3003 RMK A01 T02790125  RH  039%=      5-min Rain = 0
KMC1 242110Z 24010KT 28/12 A3003 RMK A01 T02790122  RH  038%=      5-min Rain = 0
KMC1 242111Z 26008KT 28/12 A3003 RMK A01 T02790121  RH  038%=      5-min Rain = 0
KMC1 242112Z 26008KT 28/12 A3003 RMK A01 T02780123  RH  038%=      5-min Rain = 0
KMC1 242113Z 25007KT 28/12 A3003 RMK A01 T02780120  RH  038%=      5-min Rain = 0
KMC1 242114Z 23008KT 28/12 A3003 RMK A01 T02760123  RH  039%=      5-min Rain = 0
KMC1 242115Z 20006KT 28/13 A3003 RMK A01 T02760127  RH  040%=      5-min Rain = 0
KMC1 242116Z 21008KT 28/13 A3003 RMK A01 T02780127  RH  039%=      5-min Rain = 0
KMC1 242117Z 21006KT 28/12 A3003 RMK A01 T02780124  RH  039%=      5-min Rain = 0
KMC1 242118Z 21007KT 28/12 A3003 RMK A01 T02770123  RH  039%=      5-min Rain = 0
KMC1 242119Z 21008KT 28/12 A3003 RMK A01 T02760119  RH  038%=      5-min Rain = 0
KMC1 242120Z 22007KT 28/11 A3003 RMK A01 T02760113  RH  036%=      5-min Rain = 0
KMC1 242121Z 20007KT 28/12 A3003 RMK A01 T02750115  RH  037%=      5-min Rain = 0
KMC1 242122Z 21007KT 27/12 A3003 RMK A01 T02740116  RH  038%=      5-min Rain = 0
KMC1 242123Z 21004KT 27/12 A3003 RMK A01 T02730116  RH  038%=      5-min Rain = 0
KMC1 242124Z 20004KT 27/12 A3002 RMK A01 T02720119  RH  039%=      5-min Rain = 0
KMC1 242125Z 20005KT 27/12 A3002 RMK A01 T02730116  RH  038%=      5-min Rain = 0
KMC1 242126Z 21004KT 28/11 A3002 RMK A01 T02750113  RH  037%=      5-min Rain = 0
KMC1 242127Z 21004KT 28/12 A3002 RMK A01 T02770122  RH  038%=      5-min Rain = 0
KMC1 242128Z 20008KT 28/12 A3002 RMK A01 T02800121  RH  037%=      5-min Rain = 0
KMC1 242129Z 21006KT 28/12 A3002 RMK A01 T02800115  RH  036%=      5-min Rain = 0
KMC1 242130Z 20006KT 28/12 A3002 RMK A01 T02780118  RH  037%=      5-min Rain = 0
KMC1 242131Z 17007KT 28/12 A3002 RMK A01 T02770120  RH  038%=      5-min Rain = 0
KMC1 242132Z 20006KT 28/12 A3002 RMK A01 T02770119  RH  038%=      5-min Rain = 0
KMC1 242133Z 18006KT 28/12 A3002 RMK A01 T02760117  RH  037%=      5-min Rain = 0
KMC1 242134Z 20008KT 28/12 A3002 RMK A01 T02760119  RH  038%=      5-min Rain = 0
KMC1 242135Z 23006KT 28/12 A3002 RMK A01 T02750120  RH  038%=      5-min Rain = 0
KMC1 242136Z 25004KT 27/12 A3002 RMK A01 T02740118  RH  038%=      5-min Rain = 0
KMC1 242137Z 25003KT 27/12 A3002 RMK A01 T02720120  RH  039%=      5-min Rain = 0
KMC1 242138Z 25002KT 27/13 A3002 RMK A01 T02730125  RH  040%=      5-min Rain = 0
KMC1 242139Z 23005KT 28/12 A3002 RMK A01 T02750120  RH  038%=      5-min Rain = 0
KMC1 242140Z 24005KT 28/11 A3001 RMK A01 T02770109  RH  035%=      5-min Rain = 0
KMC1 242141Z 22007KT 28/11 A3001 RMK A01 T02780108  RH  035%=      5-min Rain = 0
KMC1 242142Z 22005G10KT 28/11 A3001 RMK A01 T02790105  RH  034%=      5-min Rain = 0
KMC1 242143Z 24007KT 28/11 A3001 RMK A01 T02810107  RH  034%=      5-min Rain = 0
KMC1 242144Z 25007KT 28/11 A3001 RMK A01 T02800108  RH  034%=      5-min Rain = 0
KMC1 242145Z 26004KT 28/11 A3001 RMK A01 T02800113  RH  035%=      5-min Rain = 0
KMC1 242146Z 28004KT 28/11 A3001 RMK A01 T02800114  RH  036%=      5-min Rain = 0
KMC1 242147Z 25005KT 28/11 A3001 RMK A01 T02810114  RH  035%=      5-min Rain = 0
KMC1 242148Z 25005KT 28/12 A3001 RMK A01 T02800115  RH  036%=      5-min Rain = 0
KMC1 242149Z 23006KT 28/11 A3001 RMK A01 T02780112  RH  036%=      5-min Rain = 0
KMC1 242150Z 23004KT 28/12 A3001 RMK A01 T02780118  RH  037%=      5-min Rain = 0
KMC1 242151Z 25006KT 28/12 A3001 RMK A01 T02770119  RH  037%=      5-min Rain = 0
KMC1 242152Z 27004KT 28/12 A3001 RMK A01 T02780116  RH  037%=      5-min Rain = 0
KMC1 242153Z 29005KT 28/12 A3001 RMK A01 T02780119  RH  037%=      5-min Rain = 0
KMC1 242154Z 32002KT 28/12 A3001 RMK A01 T02780122  RH  038%=      5-min Rain = 0
KMC1 242155Z 19004G10KT 28/12 A3001 RMK A01 T02800124  RH  038%=      5-min Rain = 0
KMC1 242156Z 19006KT 28/11 A3001 RMK A01 T02810113  RH  035%=      5-min Rain = 0
KMC1 242157Z 21006KT 28/11 A3001 RMK A01 T02820107  RH  034%=      5-min Rain = 0
KMC1 242158Z 19007KT 28/10 A3001 RMK A01 T02830098  RH  032%=      5-min Rain = 0
KMC1 242159Z 17004KT 28/10 A3001 RMK A01 T02800101  RH  033%=      5-min Rain = 0
KMC1 242200Z 18004KT 28/11 A3001 RMK A01 T02790109  RH  035%=      5-min Rain = 0
KMC1 242201Z 19005KT 28/12 A3001 RMK A01 T02800117  RH  036%=      5-min Rain = 0
KMC1 242202Z 19005KT 28/12 A3001 RMK A01 T02800121  RH  037%=      5-min Rain = 0
KMC1 242203Z 17005KT 28/12 A30 RMK A01 T02820117  RH  036%=      5-min Rain = 0
KMC1 242204Z 19003KT 28/12 A30 RMK A01 T02840117  RH  035%=      5-min Rain = 0
KMC1 242205Z 22004KT 29/12 A30 RMK A01 T02860120  RH  036%=      5-min Rain = 0
KMC1 242206Z 23006KT 29/12 A30 RMK A01 T02870121  RH  036%=      5-min Rain = 0
KMC1 242207Z 22009KT 29/11 A30 RMK A01 T02860114  RH  035%=      5-min Rain = 0
KMC1 242208Z 22008KT 28/11 A30 RMK A01 T02820109  RH  034%=      5-min Rain = 0
KMC1 242209Z 22010KT 28/10 A30 RMK A01 T02820104  RH  033%=      5-min Rain = 0
KMC1 242210Z 22008KT 28/10 A30 RMK A01 T02790100  RH  033%=      5-min Rain = 0
KMC1 242211Z 20007KT 28/10 A30 RMK A01 T02780102  RH  033%=      5-min Rain = 0
KMC1 242212Z 20007KT 28/09 A30 RMK A01 T02780090  RH  031%=      5-min Rain = 0
KMC1 242213Z 22006KT 28/09 A30 RMK A01 T02790092  RH  031%=      5-min Rain = 0
KMC1 242214Z 21006KT 28/09 A30 RMK A01 T02800088  RH  030%=      5-min Rain = 0
KMC1 242215Z 20005KT 28/10 A30 RMK A01 T02800097  RH  032%=      5-min Rain = 0
KMC1 242216Z 24006KT 28/09 A30 RMK A01 T02810093  RH  031%=      5-min Rain = 0
KMC1 242217Z 22004KT 28/10 A30 RMK A01 T02820095  RH  031%=      5-min Rain = 0
KMC1 242218Z 19005KT 28/09 A30 RMK A01 T02830093  RH  030%=      5-min Rain = 0
KMC1 242219Z 19005KT 28/09 A30 RMK A01 T02830091  RH  030%=      5-min Rain = 0
KMC1 242220Z 21007KT 28/09 A30 RMK A01 T02830093  RH  030%=      5-min Rain = 0
KMC1 242221Z 22006KT 28/09 A30 RMK A01 T02830086  RH  029%=      5-min Rain = 0
KMC1 242222Z 21006KT 28/09 A30 RMK A01 T02830089  RH  030%=      5-min Rain = 0
KMC1 242223Z 20006KT 28/10 A30 RMK A01 T02820096  RH  031%=      5-min Rain = 0
KMC1 242224Z 20007KT 28/10 A30 RMK A01 T02820103  RH  033%=      5-min Rain = 0
KMC1 242225Z 20008KT 28/10 A30 RMK A01 T02820096  RH  031%=      5-min Rain = 0
KMC1 242226Z 19006KT 28/10 A30 RMK A01 T02810098  RH  032%=      5-min Rain = 0
KMC1 242227Z 19006KT 28/10 A30 RMK A01 T02800100  RH  032%=      5-min Rain = 0
KMC1 242228Z 21004KT 28/10 A30 RMK A01 T02800101  RH  033%=      5-min Rain = 0
KMC1 242229Z 22004KT 28/10 A30 RMK A01 T02800101  RH  033%=      5-min Rain = 0
KMC1 242230Z 20002KT 28/10 A30 RMK A01 T02800103  RH  033%=      5-min Rain = 0
KMC1 242231Z 19002KT 28/11 A30 RMK A01 T02820105  RH  033%=      5-min Rain = 0
KMC1 242232Z 20005KT 28/10 A30 RMK A01 T02820099  RH  032%=      5-min Rain = 0
KMC1 242233Z 19003KT 28/10 A30 RMK A01 T02820096  RH  031%=      5-min Rain = 0
KMC1 242234Z 22002KT 28/10 A30 RMK A01 T02800095  RH  031%=      5-min Rain = 0
KMC1 242235Z 19003KT 28/10 A30 RMK A01 T02790101  RH  033%=      5-min Rain = 0
KMC1 242236Z 20004KT 28/11 A30 RMK A01 T02800108  RH  034%=      5-min Rain = 0
KMC1 242237Z 19005KT 28/11 A30 RMK A01 T02800107  RH  034%=      5-min Rain = 0
KMC1 242238Z 19003KT 28/11 A30 RMK A01 T02800106  RH  034%=      5-min Rain = 0
KMC1 242239Z 23003KT 28/11 A30 RMK A01 T02810110  RH  034%=      5-min Rain = 0
KMC1 242240Z 25005KT 28/11 A30 RMK A01 T02830108  RH  034%=      5-min Rain = 0
KMC1 242241Z 27006KT 28/11 A30 RMK A01 T02830108  RH  034%=      5-min Rain = 0
KMC1 242242Z 25006KT 28/11 A30 RMK A01 T02840106  RH  033%=      5-min Rain = 0
KMC1 242243Z 24006KT 28/10 A30 RMK A01 T02840103  RH  032%=      5-min Rain = 0
KMC1 242244Z 23006KT 28/10 A30 RMK A01 T02820102  RH  032%=      5-min Rain = 0
KMC1 242245Z 26006KT 28/10 A30 RMK A01 T02820102  RH  032%=      5-min Rain = 0
KMC1 242246Z 28006KT 28/10 A30 RMK A01 T02820100  RH  032%=      5-min Rain = 0
KMC1 242247Z 27007KT 28/10 A30 RMK A01 T02820101  RH  032%=      5-min Rain = 0
KMC1 242248Z 26006KT 28/10 A30 RMK A01 T02820098  RH  032%=      5-min Rain = 0
KMC1 242249Z 27006KT 28/10 A30 RMK A01 T02820098  RH  032%=      5-min Rain = 0
KMC1 242250Z 21007KT 28/10 A30 RMK A01 T02820099  RH  032%=      5-min Rain = 0
KMC1 242251Z 20006KT 28/10 A30 RMK A01 T02810095  RH  031%=      5-min Rain = 0
KMC1 242252Z 21005KT 28/10 A30 RMK A01 T02810095  RH  031%=      5-min Rain = 0
KMC1 242253Z 22005KT 28/09 A30 RMK A01 T02810091  RH  030%=      5-min Rain = 0
KMC1 242254Z 21005KT 28/09 A30 RMK A01 T02800092  RH  031%=      5-min Rain = 0
KMC1 242255Z 20004KT 28/10 A30 RMK A01 T02800095  RH  031%=      5-min Rain = 0
KMC1 242256Z 22004KT 28/10 A30 RMK A01 T02800098  RH  032%=      5-min Rain = 0
KMC1 242257Z 21006KT 28/09 A30 RMK A01 T02820094  RH  031%=      5-min Rain = 0
KMC1 242258Z 21004KT 28/10 A30 RMK A01 T02820098  RH  032%=      5-min Rain = 0
KMC1 242259Z 19007KT 28/10 A30 RMK A01 T02820100  RH  032%=      5-min Rain = 0
KMC1 242300Z 17006KT 28/10 A30 RMK A01 T02820098  RH  032%=      5-min Rain = 0
KMC1 242301Z 17006KT 28/10 A30 RMK A01 T02800102  RH  033%=      5-min Rain = 0
KMC1 242302Z 18005KT 28/10 A30 RMK A01 T02800099  RH  032%=      5-min Rain = 0
KMC1 242303Z 18005KT 28/10 A30 RMK A01 T02790100  RH  032%=      5-min Rain = 0
KMC1 242304Z 18005KT 28/10 A30 RMK A01 T02790098  RH  032%=      5-min Rain = 0
KMC1 242305Z 20005KT 28/10 A30 RMK A01 T02790101  RH  033%=      5-min Rain = 0
KMC1 242306Z 19005KT 28/10 A30 RMK A01 T02800100  RH  033%=      5-min Rain = 0
KMC1 242307Z 19004KT 28/10 A2999 RMK A01 T02800100  RH  033%=      5-min Rain = 0
KMC1 242308Z 23005KT 28/10 A2999 RMK A01 T02800103  RH  033%=      5-min Rain = 0
KMC1 242309Z 25007KT 28/10 A30 RMK A01 T02800099  RH  032%=      5-min Rain = 0
KMC1 242310Z 25007KT 28/10 A30 RMK A01 T02810099  RH  032%=      5-min Rain = 0
KMC1 242311Z 23006KT 28/10 A30 RMK A01 T02810101  RH  033%=      5-min Rain = 0
KMC1 242312Z 23007KT 28/10 A30 RMK A01 T02810103  RH  033%=      5-min Rain = 0
KMC1 242313Z 22006KT 28/10 A30 RMK A01 T02800104  RH  033%=      5-min Rain = 0
KMC1 242314Z 20008KT 28/11 A30 RMK A01 T02790105  RH  034%=      5-min Rain = 0
KMC1 242315Z 19008KT 28/11 A30 RMK A01 T02790105  RH  034%=      5-min Rain = 0
KMC1 242316Z 19005KT 28/10 A30 RMK A01 T02780104  RH  034%=      5-min Rain = 0
KMC1 242317Z 21003KT 28/10 A30 RMK A01 T02780104  RH  034%=      5-min Rain = 0
KMC1 242318Z 18005KT 28/10 A30 RMK A01 T02780104  RH  034%=      5-min Rain = 0
KMC1 242319Z 19006KT 28/11 A30 RMK A01 T02780105  RH  034%=      5-min Rain = 0
KMC1 242320Z 19006KT 28/11 A30 RMK A01 T02780105  RH  034%=      5-min Rain = 0
KMC1 242321Z 20005KT 28/11 A30 RMK A01 T02780107  RH  034%=      5-min Rain = 0
KMC1 242322Z 19004KT 28/11 A30 RMK A01 T02780111  RH  035%=      5-min Rain = 0
KMC1 242323Z 20004KT 28/11 A30 RMK A01 T02790113  RH  036%=      5-min Rain = 0
KMC1 242324Z 19007KT 28/11 A30 RMK A01 T02800110  RH  035%=      5-min Rain = 0
KMC1 242325Z 19006KT 28/11 A30 RMK A01 T02800108  RH  034%=      5-min Rain = 0
KMC1 242326Z 20007KT 28/11 A30 RMK A01 T02800106  RH  034%=      5-min Rain = 0
KMC1 242327Z 21005KT 28/11 A30 RMK A01 T02790105  RH  034%=      5-min Rain = 0
KMC1 242328Z 21005KT 28/11 A30 RMK A01 T02790105  RH  034%=      5-min Rain = 0
KMC1 242329Z 21004KT 28/11 A30 RMK A01 T02780106  RH  034%=      5-min Rain = 0
KMC1 242330Z 20008KT 28/11 A30 RMK A01 T02780109  RH  035%=      5-min Rain = 0
KMC1 242331Z 22006KT 28/11 A30 RMK A01 T02780108  RH  035%=      5-min Rain = 0
KMC1 242332Z 21004KT 28/11 A30 RMK A01 T02770110  RH  035%=      5-min Rain = 0
KMC1 242333Z 19004KT 28/11 A30 RMK A01 T02770113  RH  036%=      5-min Rain = 0
KMC1 242334Z 20004KT 28/11 A30 RMK A01 T02770112  RH  036%=      5-min Rain = 0
KMC1 242335Z 19006KT 28/11 A30 RMK A01 T02780111  RH  035%=      5-min Rain = 0
KMC1 242336Z 19004KT 28/11 A30 RMK A01 T02770112  RH  036%=      5-min Rain = 0
KMC1 242337Z 22004KT 28/11 A30 RMK A01 T02770112  RH  036%=      5-min Rain = 0
KMC1 242338Z 22004KT 28/11 A30 RMK A01 T02770111  RH  035%=      5-min Rain = 0
KMC1 242339Z 24005KT 28/11 A30 RMK A01 T02770106  RH  034%=      5-min Rain = 0
KMC1 242340Z 23004KT 28/11 A30 RMK A01 T02770107  RH  035%=      5-min Rain = 0
KMC1 242341Z 24003KT 28/11 A30 RMK A01 T02770110  RH  035%=      5-min Rain = 0
KMC1 242342Z 22006KT 28/11 A30 RMK A01 T02770108  RH  035%=      5-min Rain = 0
KMC1 242343Z 21004KT 28/11 A30 RMK A01 T02780107  RH  034%=      5-min Rain = 0
KMC1 242344Z 23004KT 28/11 A30 RMK A01 T02770108  RH  035%=      5-min Rain = 0
KMC1 242345Z 24004KT 28/11 A30 RMK A01 T02770109  RH  035%=      5-min Rain = 0
KMC1 242346Z 24004KT 28/11 A30 RMK A01 T02770109  RH  035%=      5-min Rain = 0
KMC1 242347Z 22003KT 28/11 A30 RMK A01 T02770109  RH  035%=      5-min Rain = 0
KMC1 242348Z 24004KT 28/11 A30 RMK A01 T02770110  RH  035%=      5-min Rain = 0
KMC1 242349Z 22005KT 28/11 A30 RMK A01 T02770108  RH  035%=      5-min Rain = 0
KMC1 242350Z 22006KT 28/11 A30 RMK A01 T02770106  RH  034%=      5-min Rain = 0
KMC1 242351Z 23005KT 28/11 A30 RMK A01 T02750106  RH  035%=      5-min Rain = 0
KMC1 242352Z 21003KT 28/11 A30 RMK A01 T02750107  RH  035%=      5-min Rain = 0
KMC1 242353Z 21004KT 28/11 A30 RMK A01 T02750107  RH  035%=      5-min Rain = 0
KMC1 242354Z 21004KT 28/11 A30 RMK A01 T02750105  RH  035%=      5-min Rain = 0
KMC1 242355Z 22005KT 27/11 A30 RMK A01 T02740105  RH  035%=      5-min Rain = 0
KMC1 242356Z 23003KT 27/11 A30 RMK A01 T02740106  RH  035%=      5-min Rain = 0
KMC1 242357Z 22004KT 27/11 A30 RMK A01 T02730109  RH  036%=      5-min Rain = 0
KMC1 242358Z 20004KT 27/11 A30 RMK A01 T02730111  RH  036%=      5-min Rain = 0
KMC1 242359Z 20005KT 27/11 A30 RMK A01 T02730111  RH  036%=      5-min Rain = 0
KMC1 250000Z 21005KT 27/11 A30 RMK A01 T02720111  RH  037%=      5-min Rain = 0
KMC1 250001Z 21004KT 27/11 A30 RMK A01 T02720113  RH  037%=      5-min Rain = 0
KMC1 250002Z 22004KT 27/11 A30 RMK A01 T02720113  RH  037%=      5-min Rain = 0
KMC1 250003Z 22005KT 27/11 A30 RMK A01 T02710111  RH  037%=      5-min Rain = 0
KMC1 250004Z 21005KT 27/11 A30 RMK A01 T02720109  RH  036%=      5-min Rain = 0
KMC1 250005Z 21005KT 27/11 A30 RMK A01 T02710110  RH  036%=      5-min Rain = 0
KMC1 250006Z 21004KT 27/11 A30 RMK A01 T02710111  RH  037%=      5-min Rain = 0
KMC1 250007Z 21005KT 27/11 A30 RMK A01 T02710111  RH  037%=      5-min Rain = 0
KMC1 250008Z 21004KT 27/11 A30 RMK A01 T02710112  RH  037%=      5-min Rain = 0
KMC1 250009Z 21005KT 27/11 A30 RMK A01 T02700112  RH  037%=      5-min Rain = 0
KMC1 250010Z 22004KT 27/11 A30 RMK A01 T02690112  RH  037%=      5-min Rain = 0
KMC1 250011Z 21004KT 27/11 A30 RMK A01 T02690112  RH  038%=      5-min Rain = 0
KMC1 250012Z 20005KT 27/12 A30 RMK A01 T02680115  RH  038%=      5-min Rain = 0
KMC1 250013Z 20005KT 27/12 A30 RMK A01 T02660119  RH  040%=      5-min Rain = 0
KMC1 250014Z 19006KT 27/12 A30 RMK A01 T02650121  RH  041%=      5-min Rain = 0
KMC1 250015Z 21006KT 26/12 A30 RMK A01 T02640122  RH  041%=      5-min Rain = 0
KMC1 250016Z 21005KT 26/12 A30 RMK A01 T02640124  RH  042%=      5-min Rain = 0
KMC1 250017Z 21004KT 26/12 A30 RMK A01 T02630124  RH  042%=      5-min Rain = 0
KMC1 250018Z 20003KT 26/13 A30 RMK A01 T02630125  RH  042%=      5-min Rain = 0
KMC1 250019Z 20003KT 26/13 A30 RMK A01 T02620125  RH  043%=      5-min Rain = 0
KMC1 250020Z 20005KT 26/13 A30 RMK A01 T02620126  RH  043%=      5-min Rain = 0
KMC1 250021Z 20004KT 26/13 A30 RMK A01 T02620126  RH  043%=      5-min Rain = 0
KMC1 250022Z 21004KT 26/13 A3001 RMK A01 T02630127  RH  043%=      5-min Rain = 0
KMC1 250023Z 20003KT 26/13 A3001 RMK A01 T02620127  RH  043%=      5-min Rain = 0
KMC1 250024Z 21004KT 26/13 A3001 RMK A01 T02620128  RH  043%=      5-min Rain = 0
KMC1 250025Z 21004KT 26/13 A3001 RMK A01 T02620128  RH  043%=      5-min Rain = 0
KMC1 250026Z 22003KT 26/13 A3001 RMK A01 T02620128  RH  044%=      5-min Rain = 0
KMC1 250027Z 22004KT 26/13 A3001 RMK A01 T02610129  RH  044%=      5-min Rain = 0
KMC1 250028Z 22004KT 26/13 A3001 RMK A01 T02600128  RH  044%=      5-min Rain = 0
KMC1 250029Z 21005KT 26/13 A3001 RMK A01 T02600129  RH  044%=      5-min Rain = 0
KMC1 250030Z 22004KT 26/13 A3001 RMK A01 T02590126  RH  044%=      5-min Rain = 0
KMC1 250031Z 23003KT 26/13 A3001 RMK A01 T02590127  RH  044%=      5-min Rain = 0
KMC1 250032Z 22004KT 26/13 A3001 RMK A01 T02580126  RH  044%=      5-min Rain = 0
KMC1 250033Z 21004KT 26/13 A3001 RMK A01 T02580126  RH  044%=      5-min Rain = 0
KMC1 250034Z 21004KT 26/13 A3001 RMK A01 T02570126  RH  044%=      5-min Rain = 0
KMC1 250035Z 21004KT 26/13 A3001 RMK A01 T02570126  RH  044%=      5-min Rain = 0
KMC1 250036Z 21005KT 26/13 A3001 RMK A01 T02560126  RH  044%=      5-min Rain = 0
KMC1 250037Z 21004KT 26/13 A3001 RMK A01 T02560126  RH  044%=      5-min Rain = 0
KMC1 250038Z 22004KT 26/13 A3001 RMK A01 T02550127  RH  045%=      5-min Rain = 0
KMC1 250039Z 21003KT 25/13 A3001 RMK A01 T02540127  RH  045%=      5-min Rain = 0
KMC1 250040Z 22003KT 25/13 A3001 RMK A01 T02530127  RH  046%=      5-min Rain = 0
KMC1 250041Z 21004KT 25/13 A3001 RMK A01 T02520127  RH  046%=      5-min Rain = 0
KMC1 250042Z 21004KT 25/13 A3001 RMK A01 T02510126  RH  046%=      5-min Rain = 0
KMC1 250043Z 21003KT 25/13 A3001 RMK A01 T02510127  RH  046%=      5-min Rain = 0
KMC1 250044Z 21003KT 25/13 A3002 RMK A01 T02510127  RH  046%=      5-min Rain = 0
KMC1 250045Z 21003KT 25/13 A3002 RMK A01 T02510127  RH  046%=      5-min Rain = 0
KMC1 250046Z 21003KT 25/13 A3002 RMK A01 T02500127  RH  046%=      5-min Rain = 0
KMC1 250047Z 21003KT 25/13 A3002 RMK A01 T02490127  RH  047%=      5-min Rain = 0
KMC1 250048Z 21003KT 25/13 A3002 RMK A01 T02480127  RH  047%=      5-min Rain = 0
KMC1 250049Z 20003KT 25/13 A3002 RMK A01 T02470127  RH  047%=      5-min Rain = 0
KMC1 250050Z 20003KT 25/13 A3002 RMK A01 T02470128  RH  047%=      5-min Rain = 0
KMC1 250051Z 20003KT 25/13 A3002 RMK A01 T02460128  RH  048%=      5-min Rain = 0
KMC1 250052Z 20004KT 25/13 A3002 RMK A01 T02450128  RH  048%=      5-min Rain = 0
KMC1 250053Z 20004KT 24/13 A3002 RMK A01 T02440129  RH  049%=      5-min Rain = 0
KMC1 250054Z 19004KT 24/13 A3002 RMK A01 T02440129  RH  049%=      5-min Rain = 0
KMC1 250055Z 19004KT 24/13 A3002 RMK A01 T02430130  RH  049%=      5-min Rain = 0
KMC1 250056Z 20004KT 24/13 A3002 RMK A01 T02430130  RH  049%=      5-min Rain = 0
KMC1 250057Z 20004KT 24/13 A3002 RMK A01 T02420130  RH  050%=      5-min Rain = 0
KMC1 250058Z 20003KT 24/13 A3002 RMK A01 T02410131  RH  050%=      5-min Rain = 0
KMC1 250059Z 19003KT 24/13 A3002 RMK A01 T02410131  RH  050%=      5-min Rain = 0
KMC1 250100Z 19004KT 24/13 A3002 RMK A01 T02400131  RH  051%=      5-min Rain = 0
KMC1 250101Z 19004KT 24/13 A3002 RMK A01 T02390131  RH  051%=      5-min Rain = 0
KMC1 250102Z 19003KT 24/13 A3002 RMK A01 T02390131  RH  051%=      5-min Rain = 0
KMC1 250103Z 19003KT 24/13 A3002 RMK A01 T02380132  RH  051%=      5-min Rain = 0
KMC1 250104Z 19003KT 24/13 A3002 RMK A01 T02380132  RH  051%=      5-min Rain = 0
KMC1 250105Z 19003KT 24/13 A3002 RMK A01 T02370132  RH  052%=      5-min Rain = 0
KMC1 250106Z 19003KT 24/13 A3002 RMK A01 T02360132  RH  052%=      5-min Rain = 0
KMC1 250107Z 19004KT 24/13 A3002 RMK A01 T02350132  RH  052%=      5-min Rain = 0
KMC1 250108Z 18004KT 24/13 A3002 RMK A01 T02350132  RH  053%=      5-min Rain = 0
KMC1 250109Z 18004KT 23/13 A3002 RMK A01 T02340132  RH  053%=      5-min Rain = 0
KMC1 250110Z 18004KT 23/13 A3002 RMK A01 T02330132  RH  053%=      5-min Rain = 0
KMC1 250111Z 18004KT 23/13 A3002 RMK A01 T02320132  RH  053%=      5-min Rain = 0
KMC1 250112Z 18004KT 23/13 A3002 RMK A01 T02320132  RH  053%=      5-min Rain = 0
KMC1 250113Z 18004KT 23/13 A3002 RMK A01 T02320132  RH  054%=      5-min Rain = 0
KMC1 250114Z 18004KT 23/13 A3002 RMK A01 T02310132  RH  054%=      5-min Rain = 0
KMC1 250115Z 18005KT 23/13 A3002 RMK A01 T02300132  RH  054%=      5-min Rain = 0
KMC1 250116Z 18004KT 23/13 A3002 RMK A01 T02290132  RH  054%=      5-min Rain = 0
KMC1 250117Z 17004KT 23/13 A3002 RMK A01 T02280132  RH  054%=      5-min Rain = 0
KMC1 250118Z 18004KT 23/13 A3002 RMK A01 T02280132  RH  055%=      5-min Rain = 0
KMC1 250119Z 18004KT 23/13 A3002 RMK A01 T02270131  RH  055%=      5-min Rain = 0
KMC1 250120Z 18004KT 23/13 A3002 RMK A01 T02260131  RH  055%=      5-min Rain = 0
KMC1 250121Z 18004KT 23/13 A3002 RMK A01 T02260131  RH  055%=      5-min Rain = 0
KMC1 250122Z 18004KT 23/13 A3003 RMK A01 T02250130  RH  055%=      5-min Rain = 0
KMC1 250123Z 18004KT 23/13 A3003 RMK A01 T02250130  RH  055%=      5-min Rain = 0
KMC1 250124Z 18005KT 23/13 A3003 RMK A01 T02250129  RH  055%=      5-min Rain = 0
KMC1 250125Z 18004KT 23/13 A3003 RMK A01 T02250129  RH  055%=      5-min Rain = 0
KMC1 250126Z 18004KT 23/13 A3003 RMK A01 T02250129  RH  055%=      5-min Rain = 0
KMC1 250127Z 19004KT 22/13 A3003 RMK A01 T02240129  RH  055%=      5-min Rain = 0
KMC1 250128Z 18004KT 22/13 A3003 RMK A01 T02240129  RH  055%=      5-min Rain = 0
KMC1 250129Z 19004KT 22/13 A3003 RMK A01 T02230128  RH  055%=      5-min Rain = 0
KMC1 250130Z 19004KT 22/13 A3003 RMK A01 T02230128  RH  055%=      5-min Rain = 0
KMC1 250131Z 19004KT 22/13 A3003 RMK A01 T02220128  RH  055%=      5-min Rain = 0
KMC1 250132Z 18004KT 22/13 A3003 RMK A01 T02210128  RH  055%=      5-min Rain = 0
KMC1 250133Z 19004KT 22/13 A3003 RMK A01 T02210128  RH  056%=      5-min Rain = 0
KMC1 250134Z 18004KT 22/13 A3003 RMK A01 T02200128  RH  056%=      5-min Rain = 0
KMC1 250135Z 18005KT 22/13 A3003 RMK A01 T02200128  RH  056%=      5-min Rain = 0
KMC1 250136Z 18005KT 22/13 A3003 RMK A01 T02190127  RH  056%=      5-min Rain = 0
KMC1 250137Z 18005KT 22/13 A3003 RMK A01 T02190128  RH  056%=      5-min Rain = 0
KMC1 250138Z 18005KT 22/13 A3003 RMK A01 T02180128  RH  056%=      5-min Rain = 0
KMC1 250139Z 18005KT 22/13 A3003 RMK A01 T02180128  RH  057%=      5-min Rain = 0
KMC1 250140Z 19005KT 22/13 A3003 RMK A01 T02170128  RH  057%=      5-min Rain = 0
KMC1 250141Z 18006KT 22/13 A3003 RMK A01 T02160128  RH  057%=      5-min Rain = 0
KMC1 250142Z 18005KT 22/13 A3003 RMK A01 T02160128  RH  057%=      5-min Rain = 0
KMC1 250143Z 18006KT 22/13 A3003 RMK A01 T02150128  RH  058%=      5-min Rain = 0
KMC1 250144Z 18006KT 22/13 A3003 RMK A01 T02150128  RH  058%=      5-min Rain = 0
KMC1 250145Z 18005KT 22/13 A3003 RMK A01 T02150129  RH  058%=      5-min Rain = 0
KMC1 250146Z 18005KT 22/13 A3003 RMK A01 T02150129  RH  058%=      5-min Rain = 0
KMC1 250147Z 18005KT 21/13 A3003 RMK A01 T02140129  RH  058%=      5-min Rain = 0
KMC1 250148Z 18005KT 21/13 A3003 RMK A01 T02140129  RH  058%=      5-min Rain = 0
KMC1 250149Z 19005KT 21/13 A3003 RMK A01 T02140129  RH  058%=      5-min Rain = 0
KMC1 250150Z 18005KT 21/13 A3004 RMK A01 T02130129  RH  059%=      5-min Rain = 0
KMC1 250151Z 18005KT 21/13 A3004 RMK A01 T02130129  RH  059%=      5-min Rain = 0
KMC1 250152Z 19005KT 21/13 A3004 RMK A01 T02120129  RH  059%=      5-min Rain = 0
KMC1 250153Z 19004KT 21/13 A3004 RMK A01 T02120129  RH  059%=      5-min Rain = 0
KMC1 250154Z 19004KT 21/13 A3004 RMK A01 T02110129  RH  059%=      5-min Rain = 0
KMC1 250155Z 19004KT 21/13 A3004 RMK A01 T02110129  RH  060%=      5-min Rain = 0
KMC1 250156Z 19005KT 21/13 A3004 RMK A01 T02090129  RH  060%=      5-min Rain = 0
KMC1 250157Z 18005KT 21/13 A3004 RMK A01 T02080129  RH  060%=      5-min Rain = 0
KMC1 250158Z 18005KT 21/13 A3004 RMK A01 T02080129  RH  060%=      5-min Rain = 0
KMC1 250159Z 18005KT 21/13 A3004 RMK A01 T02080130  RH  061%=      5-min Rain = 0
KMC1 250200Z 18006KT 21/13 A3004 RMK A01 T02080129  RH  061%=      5-min Rain = 0
KMC1 250201Z 18006KT 21/13 A3004 RMK A01 T02080130  RH  061%=      5-min Rain = 0
KMC1 250202Z 18005KT 21/13 A3004 RMK A01 T02070130  RH  061%=      5-min Rain = 0
KMC1 250203Z 18006KT 21/13 A3004 RMK A01 T02070130  RH  061%=      5-min Rain = 0
KMC1 250204Z 18005KT 21/13 A3004 RMK A01 T02070130  RH  061%=      5-min Rain = 0
KMC1 250205Z 18005KT 21/13 A3004 RMK A01 T02070130  RH  062%=      5-min Rain = 0
KMC1 250206Z 18005KT 21/13 A3004 RMK A01 T02070131  RH  062%=      5-min Rain = 0
KMC1 250207Z 18005KT 21/13 A3004 RMK A01 T02060131  RH  062%=      5-min Rain = 0
KMC1 250208Z 19005KT 21/13 A3004 RMK A01 T02060131  RH  062%=      5-min Rain = 0
KMC1 250209Z 19005KT 21/13 A3004 RMK A01 T02050131  RH  062%=      5-min Rain = 0
KMC1 250210Z 18005KT 21/13 A3004 RMK A01 T02050132  RH  063%=      5-min Rain = 0
KMC1 250211Z 19006KT 20/13 A3004 RMK A01 T02040132  RH  063%=      5-min Rain = 0
KMC1 250212Z 18006KT 20/13 A3004 RMK A01 T02040132  RH  063%=      5-min Rain = 0
KMC1 250213Z 18006KT 20/13 A3004 RMK A01 T02040132  RH  063%=      5-min Rain = 0
KMC1 250214Z 18007KT 20/13 A3004 RMK A01 T02040133  RH  063%=      5-min Rain = 0
KMC1 250215Z 18006KT 20/13 A3004 RMK A01 T02040133  RH  063%=      5-min Rain = 0
KMC1 250216Z 18007KT 21/13 A3005 RMK A01 T02050133  RH  063%=      5-min Rain = 0
KMC1 250217Z 18006KT 21/13 A3005 RMK A01 T02050134  RH  064%=      5-min Rain = 0
KMC1 250218Z 18007KT 21/13 A3005 RMK A01 T02050133  RH  064%=      5-min Rain = 0
KMC1 250219Z 18006KT 21/13 A3005 RMK A01 T02050133  RH  064%=      5-min Rain = 0
KMC1 250220Z 18007KT 21/13 A3005 RMK A01 T02050134  RH  064%=      5-min Rain = 0
KMC1 250221Z 18006KT 21/13 A3005 RMK A01 T02050134  RH  064%=      5-min Rain = 0
KMC1 250222Z 18006KT 21/13 A3005 RMK A01 T02050134  RH  064%=      5-min Rain = 0
KMC1 250223Z 18007KT 20/13 A3005 RMK A01 T02040134  RH  064%=      5-min Rain = 0
KMC1 250224Z 18006KT 20/13 A3005 RMK A01 T02040134  RH  064%=      5-min Rain = 0
KMC1 250225Z 18006KT 20/13 A3005 RMK A01 T02040134  RH  064%=      5-min Rain = 0
KMC1 250226Z 18006KT 20/14 A3005 RMK A01 T02030135  RH  065%=      5-min Rain = 0
KMC1 250227Z 18006KT 20/13 A3005 RMK A01 T02020134  RH  065%=      5-min Rain = 0
KMC1 250228Z 18006KT 20/14 A3005 RMK A01 T02020135  RH  065%=      5-min Rain = 0
KMC1 250229Z 18006KT 20/14 A3005 RMK A01 T02020135  RH  065%=      5-min Rain = 0
KMC1 250230Z 18006KT 20/14 A3005 RMK A01 T02020135  RH  065%=      5-min Rain = 0
KMC1 250231Z 18006KT 20/14 A3005 RMK A01 T02020135  RH  066%=      5-min Rain = 0
KMC1 250232Z 18006KT 20/14 A3005 RMK A01 T02010135  RH  066%=      5-min Rain = 0
KMC1 250233Z 18006KT 20/14 A3005 RMK A01 T02010136  RH  066%=      5-min Rain = 0
KMC1 250234Z 18006KT 20/14 A3005 RMK A01 T02010136  RH  066%=      5-min Rain = 0
KMC1 250235Z 19005KT 20/14 A3005 RMK A01 T02010136  RH  066%=      5-min Rain = 0
KMC1 250236Z 18006KT 20/14 A3006 RMK A01 T02000136  RH  066%=      5-min Rain = 0
KMC1 250237Z 19006KT 20/14 A3006 RMK A01 T02000136  RH  066%=      5-min Rain = 0
KMC1 250238Z 19005KT 20/14 A3006 RMK A01 T02010136  RH  066%=      5-min Rain = 0
KMC1 250239Z 18005KT 20/14 A3006 RMK A01 T02010137  RH  067%=      5-min Rain = 0
KMC1 250240Z 18005KT 20/14 A3006 RMK A01 T02000137  RH  067%=      5-min Rain = 0
KMC1 250241Z 18005KT 20/14 A3006 RMK A01 T02000137  RH  067%=      5-min Rain = 0
KMC1 250242Z 18005KT 20/14 A3006 RMK A01 T02000137  RH  067%=      5-min Rain = 0
KMC1 250243Z 18005KT 20/14 A3006 RMK A01 T01990137  RH  067%=      5-min Rain = 0
KMC1 250244Z 18006KT 20/14 A3006 RMK A01 T01990137  RH  068%=      5-min Rain = 0
KMC1 250245Z 17005KT 20/14 A3006 RMK A01 T01990137  RH  068%=      5-min Rain = 0
KMC1 250246Z 16006KT 20/14 A3006 RMK A01 T01990138  RH  068%=      5-min Rain = 0
KMC1 250247Z 17005KT 20/14 A3006 RMK A01 T01990138  RH  068%=      5-min Rain = 0
KMC1 250248Z 17006KT 20/14 A3006 RMK A01 T01980138  RH  068%=      5-min Rain = 0
KMC1 250249Z 18006KT 20/14 A3006 RMK A01 T01980138  RH  068%=      5-min Rain = 0
KMC1 250250Z 18006KT 20/14 A3007 RMK A01 T01980138  RH  068%=      5-min Rain = 0
KMC1 250251Z 18007KT 20/14 A3007 RMK A01 T01980139  RH  069%=      5-min Rain = 0
KMC1 250252Z 18007KT 20/14 A3007 RMK A01 T01970140  RH  069%=      5-min Rain = 0
KMC1 250253Z 18007KT 20/14 A3007 RMK A01 T01970141  RH  070%=      5-min Rain = 0
KMC1 250254Z 18007KT 20/14 A3007 RMK A01 T01980141  RH  070%=      5-min Rain = 0
KMC1 250255Z 18008KT 20/14 A3007 RMK A01 T01980143  RH  070%=      5-min Rain = 0
KMC1 250256Z 18007KT 20/15 A3007 RMK A01 T01990145  RH  071%=      5-min Rain = 0
KMC1 250257Z 18007KT 20/14 A3007 RMK A01 T01990144  RH  071%=      5-min Rain = 0
KMC1 250258Z 18007KT 20/15 A3007 RMK A01 T01990146  RH  072%=      5-min Rain = 0
KMC1 250259Z 18007KT 20/15 A3007 RMK A01 T01990146  RH  072%=      5-min Rain = 0
KMC1 250300Z 18007KT 20/15 A3007 RMK A01 T01990147  RH  072%=      5-min Rain = 0
KMC1 250301Z 18006KT 20/15 A3007 RMK A01 T01990147  RH  072%=      5-min Rain = 0
KMC1 250302Z 18006KT 20/15 A3007 RMK A01 T01990148  RH  072%=      5-min Rain = 0
KMC1 250303Z 18007KT 20/15 A3007 RMK A01 T01990148  RH  073%=      5-min Rain = 0
KMC1 250304Z 18007KT 20/15 A3007 RMK A01 T01980148  RH  073%=      5-min Rain = 0
KMC1 250305Z 18006KT 20/15 A3007 RMK A01 T01980148  RH  073%=      5-min Rain = 0
KMC1 250306Z 18005KT 20/15 A3007 RMK A01 T01980148  RH  073%=      5-min Rain = 0
KMC1 250307Z 18007KT 20/15 A3007 RMK A01 T01970148  RH  073%=      5-min Rain = 0
KMC1 250308Z 18006KT 20/15 A3007 RMK A01 T01970148  RH  073%=      5-min Rain = 0
KMC1 250309Z 18006KT 20/15 A3007 RMK A01 T01970148  RH  073%=      5-min Rain = 0
KMC1 250310Z 18006KT 20/15 A3007 RMK A01 T01960148  RH  074%=      5-min Rain = 0
KMC1 250311Z 18005KT 20/15 A3008 RMK A01 T01960148  RH  074%=      5-min Rain = 0
KMC1 250312Z 18005KT 20/15 A3008 RMK A01 T01960149  RH  074%=      5-min Rain = 0
KMC1 250313Z 17006KT 20/15 A3008 RMK A01 T01960149  RH  075%=      5-min Rain = 0
KMC1 250314Z 17006KT 20/15 A3008 RMK A01 T01950149  RH  075%=      5-min Rain = 0
KMC1 250315Z 18005KT 20/15 A3008 RMK A01 T01950149  RH  075%=      5-min Rain = 0
KMC1 250316Z 17007KT 20/15 A3008 RMK A01 T01950149  RH  075%=      5-min Rain = 0
KMC1 250317Z 18008KT 19/15 A3008 RMK A01 T01940150  RH  075%=      5-min Rain = 0
KMC1 250318Z 18007KT 19/15 A3008 RMK A01 T01940150  RH  075%=      5-min Rain = 0
KMC1 250319Z 18007KT 19/15 A3008 RMK A01 T01940150  RH  076%=      5-min Rain = 0
KMC1 250320Z 18006KT 19/15 A3008 RMK A01 T01940151  RH  076%=      5-min Rain = 0
KMC1 250321Z 18006KT 19/15 A3008 RMK A01 T01940151  RH  076%=      5-min Rain = 0
KMC1 250322Z 18007KT 19/15 A3008 RMK A01 T01940151  RH  076%=      5-min Rain = 0
KMC1 250323Z 18008KT 19/15 A3008 RMK A01 T01940152  RH  077%=      5-min Rain = 0
KMC1 250324Z 18007KT 19/15 A3008 RMK A01 T01940152  RH  077%=      5-min Rain = 0
KMC1 250325Z 18007KT 19/15 A3008 RMK A01 T01930152  RH  077%=      5-min Rain = 0
KMC1 250326Z 18006KT 19/15 A3008 RMK A01 T01940152  RH  077%=      5-min Rain = 0
KMC1 250327Z 18006KT 19/15 A3008 RMK A01 T01940152  RH  077%=      5-min Rain = 0
KMC1 250328Z 18007KT 19/15 A3008 RMK A01 T01930153  RH  077%=      5-min Rain = 0
KMC1 250329Z 18007KT 19/15 A3008 RMK A01 T01930153  RH  077%=      5-min Rain = 0
KMC1 250330Z 18006KT 19/15 A3008 RMK A01 T01930153  RH  077%=      5-min Rain = 0
KMC1 250331Z 19006KT 19/15 A3008 RMK A01 T01930153  RH  077%=      5-min Rain = 0
KMC1 250332Z 18007KT 19/15 A3008 RMK A01 T01930154  RH  078%=      5-min Rain = 0
KMC1 250333Z 18007KT 19/15 A3008 RMK A01 T01930154  RH  078%=      5-min Rain = 0
KMC1 250334Z 18007KT 19/15 A3008 RMK A01 T01930154  RH  078%=      5-min Rain = 0
KMC1 250335Z 18006KT 19/15 A3008 RMK A01 T01930154  RH  078%=      5-min Rain = 0
KMC1 250336Z 18007KT 19/16 A3008 RMK A01 T01930155  RH  078%=      5-min Rain = 0
KMC1 250337Z 18007KT 19/16 A3008 RMK A01 T01920155  RH  079%=      5-min Rain = 0
KMC1 250338Z 19007KT 19/16 A3008 RMK A01 T01920155  RH  079%=      5-min Rain = 0
KMC1 250339Z 18008KT 19/16 A3008 RMK A01 T01920155  RH  079%=      5-min Rain = 0
KMC1 250340Z 18007KT 19/16 A3008 RMK A01 T01920155  RH  079%=      5-min Rain = 0
KMC1 250341Z 18007KT 19/16 A3008 RMK A01 T01920155  RH  079%=      5-min Rain = 0
KMC1 250342Z 18008KT 19/16 A3008 RMK A01 T01920156  RH  079%=      5-min Rain = 0
KMC1 250343Z 19006KT 19/16 A3008 RMK A01 T01920155  RH  079%=      5-min Rain = 0
KMC1 250344Z 17007KT 19/16 A3008 RMK A01 T01920155  RH  079%=      5-min Rain = 0
KMC1 250345Z 17007KT 19/16 A3008 RMK A01 T01910156  RH  080%=      5-min Rain = 0
KMC1 250346Z 18008KT 19/16 A3008 RMK A01 T01910156  RH  080%=      5-min Rain = 0
KMC1 250347Z 18008KT 19/16 A3008 RMK A01 T01910156  RH  080%=      5-min Rain = 0
KMC1 250348Z 18008KT 19/16 A3008 RMK A01 T01920156  RH  080%=      5-min Rain = 0
KMC1 250349Z 18009KT 19/16 A3008 RMK A01 T01920157  RH  080%=      5-min Rain = 0
KMC1 250350Z 18008KT 19/16 A3008 RMK A01 T01920157  RH  080%=      5-min Rain = 0
KMC1 250351Z 18008KT 19/16 A3008 RMK A01 T01920157  RH  080%=      5-min Rain = 0
KMC1 250352Z 18008KT 19/16 A3008 RMK A01 T01920157  RH  080%=      5-min Rain = 0
KMC1 250353Z 18007KT 19/16 A3008 RMK A01 T01920157  RH  080%=      5-min Rain = 0
KMC1 250354Z 18009KT 19/16 A3008 RMK A01 T01920157  RH  080%=      5-min Rain = 0
KMC1 250355Z 19008KT 19/16 A3008 RMK A01 T01920157  RH  080%=      5-min Rain = 0
KMC1 250356Z 19009KT 19/16 A3008 RMK A01 T01910157  RH  080%=      5-min Rain = 0
KMC1 250357Z 18009KT 19/16 A3008 RMK A01 T01920158  RH  081%=      5-min Rain = 0
KMC1 250358Z 18008KT 19/16 A3008 RMK A01 T01910157  RH  081%=      5-min Rain = 0
KMC1 250359Z 18008KT 19/16 A3008 RMK A01 T01910158  RH  081%=      5-min Rain = 0
KMC1 250400Z 18009KT 19/16 A3008 RMK A01 T01910158  RH  081%=      5-min Rain = 0
KMC1 250401Z 18008KT 19/16 A3008 RMK A01 T01900157  RH  081%=      5-min Rain = 0
KMC1 250402Z 18009KT 19/16 A3008 RMK A01 T01910158  RH  081%=      5-min Rain = 0
KMC1 250403Z 18007KT 19/16 A3008 RMK A01 T01900158  RH  081%=      5-min Rain = 0
KMC1 250404Z 18008KT 19/16 A3008 RMK A01 T01900158  RH  081%=      5-min Rain = 0
KMC1 250405Z 18007KT 19/16 A3008 RMK A01 T01900158  RH  082%=      5-min Rain = 0
KMC1 250406Z 18007KT 19/16 A3008 RMK A01 T01900158  RH  082%=      5-min Rain = 0
KMC1 250407Z 18008KT 19/16 A3008 RMK A01 T01890157  RH  082%=      5-min Rain = 0
KMC1 250408Z 18007KT 19/16 A3008 RMK A01 T01890158  RH  082%=      5-min Rain = 0
KMC1 250409Z 18008KT 19/16 A3008 RMK A01 T01890158  RH  082%=      5-min Rain = 0
KMC1 250410Z 18009KT 19/16 A3008 RMK A01 T01890158  RH  082%=      5-min Rain = 0
KMC1 250411Z 18008KT 19/16 A3008 RMK A01 T01890158  RH  082%=      5-min Rain = 0
KMC1 250412Z 18009KT 19/16 A3008 RMK A01 T01880158  RH  083%=      5-min Rain = 0
KMC1 250413Z 19008KT 19/16 A3008 RMK A01 T01880158  RH  083%=      5-min Rain = 0
KMC1 250414Z 18008KT 19/16 A3008 RMK A01 T01880158  RH  083%=      5-min Rain = 0
KMC1 250415Z 18008KT 19/16 A3008 RMK A01 T01880158  RH  083%=      5-min Rain = 0
KMC1 250416Z 18007KT 19/16 A3008 RMK A01 T01880158  RH  083%=      5-min Rain = 0
KMC1 250417Z 18008KT 19/16 A3008 RMK A01 T01880158  RH  083%=      5-min Rain = 0
KMC1 250418Z 18008KT 19/16 A3008 RMK A01 T01880159  RH  083%=      5-min Rain = 0
KMC1 250419Z 18008KT 19/16 A3008 RMK A01 T01880158  RH  083%=      5-min Rain = 0
KMC1 250420Z 17008KT 19/16 A3008 RMK A01 T01880159  RH  083%=      5-min Rain = 0
KMC1 250421Z 18007KT 19/16 A3008 RMK A01 T01870159  RH  083%=      5-min Rain = 0
KMC1 250422Z 18007KT 19/16 A3008 RMK A01 T01870158  RH  083%=      5-min Rain = 0
KMC1 250423Z 18008KT 19/16 A3008 RMK A01 T01870159  RH  084%=      5-min Rain = 0
KMC1 250424Z 18008KT 19/16 A3008 RMK A01 T01860159  RH  084%=      5-min Rain = 0
KMC1 250425Z 18008KT 19/16 A3008 RMK A01 T01860159  RH  084%=      5-min Rain = 0
KMC1 250426Z 19008KT 19/16 A3008 RMK A01 T01870159  RH  084%=      5-min Rain = 0
KMC1 250427Z 18007KT 19/16 A3008 RMK A01 T01860159  RH  084%=      5-min Rain = 0
KMC1 250428Z 18008KT 19/16 A3008 RMK A01 T01860159  RH  084%=      5-min Rain = 0
KMC1 250429Z 18007KT 19/16 A3008 RMK A01 T01860159  RH  084%=      5-min Rain = 0
KMC1 250430Z 18007KT 19/16 A3008 RMK A01 T01860159  RH  084%=      5-min Rain = 0
KMC1 250431Z 18008KT 19/16 A3008 RMK A01 T01850159  RH  084%=      5-min Rain = 0
KMC1 250432Z 18008KT 19/16 A3008 RMK A01 T01850159  RH  085%=      5-min Rain = 0
KMC1 250433Z 18007KT 19/16 A3008 RMK A01 T01850159  RH  085%=      5-min Rain = 0
KMC1 250434Z 18007KT 19/16 A3008 RMK A01 T01850159  RH  085%=      5-min Rain = 0
KMC1 250435Z 18007KT 18/16 A3008 RMK A01 T01840159  RH  085%=      5-min Rain = 0
KMC1 250436Z 19007KT 18/16 A3008 RMK A01 T01840159  RH  085%=      5-min Rain = 0
KMC1 250437Z 18008KT 18/16 A3008 RMK A01 T01840159  RH  085%=      5-min Rain = 0
KMC1 250438Z 18006KT 18/16 A3008 RMK A01 T01840159  RH  085%=      5-min Rain = 0
KMC1 250439Z 18008KT 18/16 A3008 RMK A01 T01840159  RH  085%=      5-min Rain = 0
KMC1 250440Z 19007KT 18/16 A3008 RMK A01 T01840159  RH  085%=      5-min Rain = 0
KMC1 250441Z 18006KT 18/16 A3008 RMK A01 T01840159  RH  085%=      5-min Rain = 0
KMC1 250442Z 19008KT 18/16 A3008 RMK A01 T01830159  RH  086%=      5-min Rain = 0
KMC1 250443Z 19007KT 18/16 A3008 RMK A01 T01830159  RH  086%=      5-min Rain = 0
KMC1 250444Z 19006KT 18/16 A3008 RMK A01 T01830159  RH  086%=      5-min Rain = 0
KMC1 250445Z 18007KT 18/16 A3008 RMK A01 T01830159  RH  086%=      5-min Rain = 0
KMC1 250446Z 19006KT 18/16 A3008 RMK A01 T01830159  RH  086%=      5-min Rain = 0
KMC1 250447Z 18007KT 18/16 A3008 RMK A01 T01820159  RH  086%=      5-min Rain = 0
KMC1 250448Z 18008KT 18/16 A3008 RMK A01 T01820159  RH  086%=      5-min Rain = 0
KMC1 250449Z 19006KT 18/16 A3008 RMK A01 T01820159  RH  086%=      5-min Rain = 0
KMC1 250450Z 18006KT 18/16 A3008 RMK A01 T01820159  RH  086%=      5-min Rain = 0
KMC1 250451Z 18006KT 18/16 A3008 RMK A01 T01820159  RH  087%=      5-min Rain = 0
KMC1 250452Z 18005KT 18/16 A3008 RMK A01 T01810159  RH  087%=      5-min Rain = 0
KMC1 250453Z 18007KT 18/16 A3008 RMK A01 T01810159  RH  087%=      5-min Rain = 0
KMC1 250454Z 18007KT 18/16 A3008 RMK A01 T01810159  RH  087%=      5-min Rain = 0
KMC1 250455Z 18006KT 18/16 A3008 RMK A01 T01810159  RH  087%=      5-min Rain = 0
KMC1 250456Z 18007KT 18/16 A3008 RMK A01 T01800159  RH  087%=      5-min Rain = 0
KMC1 250457Z 18007KT 18/16 A3008 RMK A01 T01800160  RH  088%=      5-min Rain = 0
KMC1 250458Z 17006KT 18/16 A3008 RMK A01 T01800160  RH  088%=      5-min Rain = 0
KMC1 250459Z 18006KT 18/16 A3008 RMK A01 T01800159  RH  087%=      5-min Rain = 0

Page generated in 0.1254 seconds.